K2HF Weather Reports


time (UTC)temp
C
wind
direction
speed
KPH
gust
KPH
rain 1hr
cm
rain 24hr
cm
rain mn
cm
humidity
%
barometer
mb
20260506201630 15 174 6.4 24.1 0.00 0.00 0.00 100 1006.9
20260506201530 15 174 6.4 24.1 0.00 0.00 0.00 100 1006.9
20260506201430 15 174 4.8 24.1 0.00 0.00 0.00 100 1006.9
20260506201330 15 174 4.8 20.9 0.00 0.00 0.00 100 1006.9
20260506201231 15 173 4.8 20.9 0.00 0.00 0.00 100 1006.8
20260506201211 15 174 4.8 20.9 0.00 0.00 0.00 100 1006.8
20260506201131 15 174 4.8 20.9 0.00 0.00 0.00 100 1006.8
20260506201029 15 173 4.8 20.9 0.00 0.00 0.00 100 1006.7
20260506200929 15 174 4.8 20.9 0.00 0.00 0.00 100 1006.8
20260506200830 15 174 4.8 20.9 0.00 0.00 0.00 100 1006.6
20260506200709 15 174 4.8 17.7 0.00 0.00 0.00 100 1006.6
20260506200629 15 174 4.8 17.7 0.00 0.00 0.00 100 1006.6
20260506200528 15 173 4.8 17.7 0.00 0.00 0.00 100 1006.7
20260506200428 15 173 4.8 17.7 0.00 0.00 0.00 100 1006.8
20260506200327 15 173 4.8 17.7 0.00 0.00 0.00 100 1006.7
20260506200208 15 173 4.8 17.7 0.00 0.00 0.00 100 1006.8
20260506200128 15 174 4.8 17.7 0.00 0.00 0.00 100 1006.8
20260506200029 15 173 4.8 17.7 0.00 0.00 0.00 100 1006.8
20260506195929 15 174 4.8 12.9 0.00 0.00 0.00 100 1006.8
20260506195830 15 173 4.8 17.7 0.00 0.00 0.00 100 1006.8
20260506195713 15 174 4.8 14.5 0.00 0.00 0.00 100 1006.9
20260506195709 15 174 4.8 24.1 0.00 0.00 0.00 100 1006.9
20260506195629 15 174 4.8 24.1 0.00 0.00 0.00 100 1006.9
20260506195527 15 173 4.8 24.1 0.00 0.00 0.00 100 1006.9
20260506195427 15 174 4.8 24.1 0.00 0.00 0.00 100 1007.0
20260506195332 15 173 4.8 24.1 0.00 0.00 0.00 100 1007.0
20260506195319 15 174 4.8 24.1 0.00 0.00 0.00 100 1006.9
20260506195206 15 174 4.8 24.1 0.00 0.00 0.00 100 1007.0
20260506195126 15 174 4.8 24.1 0.00 0.00 0.00 100 1007.0
20260506195027 15 174 4.8 24.1 0.00 0.00 0.00 100 1006.9
20260506194927 15 174 4.8 24.1 0.00 0.00 0.00 100 1006.9
20260506194828 15 174 4.8 24.1 0.00 0.00 0.00 100 1006.9
20260506194813 15 174 4.8 14.5 0.00 0.00 0.00 100 1006.9
20260506194625 15 174 4.8 19.3 0.00 0.00 0.00 100 1006.9
20260506194526 15 174 4.8 19.3 0.00 0.00 0.00 100 1007.0
20260506194426 15 173 4.8 19.3 0.00 0.00 0.00 100 1007.0
20260506194325 15 174 4.8 19.3 0.00 0.00 0.00 100 1007.1
20260506194206 15 174 3.2 19.3 0.00 0.00 0.00 100 1007.1
20260506194124 15 174 4.8 19.3 0.00 0.00 0.00 100 1007.1
20260506194023 15 174 4.8 20.9 0.00 0.00 0.00 100 1007.0
20260506193924 15 174 4.8 20.9 0.00 0.00 0.00 100 1007.1
20260506193825 15 174 3.2 20.9 0.00 0.00 0.00 100 1007.2
20260506193706 15 174 3.2 20.9 0.00 0.00 0.00 100 1007.1
20260506193625 15 174 3.2 20.9 0.00 0.00 0.00 100 1007.1
20260506193524 15 174 4.8 20.9 0.00 0.00 0.00 100 1007.1
20260506193424 15 175 4.8 20.9 0.00 0.00 0.00 100 1007.2
20260506193324 15 175 4.8 20.9 0.00 0.00 0.00 100 1007.2
20260506193207 15 174 4.8 20.9 0.00 0.00 0.00 100 1007.2
20260506193123 15 174 3.2 20.9 0.00 0.00 0.00 100 1007.2
20260506193024 15 174 3.2 11.3 0.00 0.00 0.00 100 1007.3
20260506192923 15 174 3.2 11.3 0.00 0.00 0.00 100 1007.3
20260506192821 15 174 3.2 11.3 0.00 0.00 0.00 100 1007.3
20260506192707 15 174 3.2 11.3 0.00 0.00 0.00 100 1007.4
20260506192621 15 174 3.2 11.3 0.00 0.00 0.00 100 1007.4
20260506192522 15 174 3.2 11.3 0.00 0.00 0.00 100 1007.4
20260506192422 15 174 3.2 11.3 0.00 0.00 0.00 100 1007.5
20260506192323 15 174 3.2 11.3 0.00 0.00 0.00 100 1007.4
20260506192207 15 174 3.2 11.3 0.00 0.00 0.00 100 1007.5
20260506192122 15 174 3.2 11.3 0.00 0.00 0.00 100 1007.5
20260506192022 15 174 3.2 11.3 0.00 0.00 0.00 100 1007.5
20260506191921 15 174 3.2 11.3 0.00 0.00 0.00 100 1007.6
20260506191822 15 174 3.2 11.3 0.00 0.00 0.00 100 1007.6
20260506191722 15 174 3.2 14.5 0.00 0.00 0.00 100 1007.6
20260506191707 15 174 3.2 14.5 0.00 0.00 0.00 100 1007.7
20260506191619 15 174 3.2 14.5 0.00 0.00 0.00 100 1007.7
20260506191521 15 174 3.2 14.5 0.00 0.00 0.00 100 1007.6
20260506191421 15 174 3.2 14.5 0.00 0.00 0.00 100 1007.6
20260506191319 15 174 3.2 14.5 0.00 0.00 0.00 100 1007.5
20260506191205 15 174 3.2 14.5 0.00 0.00 0.00 100 1007.6
20260506191121 15 174 3.2 14.5 0.00 0.00 0.00 100 1007.6
20260506191020 15 174 3.2 14.5 0.00 0.00 0.00 100 1007.7
20260506190919 15 174 3.2 14.5 0.00 0.00 0.00 100 1007.7
20260506190820 15 174 3.2 14.5 0.00 0.00 0.00 100 1007.7
20260506190702 15 174 3.2 16.1 0.00 0.00 0.00 100 1007.7
20260506190619 15 174 3.2 16.1 0.00 0.00 0.00 100 1007.7
20260506190517 15 174 3.2 16.1 0.00 0.00 0.00 100 1007.7
20260506190418 15 174 3.2 16.1 0.00 0.00 0.00 100 1007.7
20260506190318 15 175 3.2 16.1 0.00 0.00 0.00 100 1007.7
20260506190217 15 175 3.2 16.1 0.00 0.00 0.00 100 1007.8
20260506190202 15 174 3.2 16.1 0.00 0.00 0.00 100 1007.8
20260506190118 15 174 3.2 16.1 0.00 0.00 0.00 100 1007.8
20260506190018 15 174 3.2 16.1 0.00 0.00 0.00 100 1007.7
20260506185919 15 174 3.2 16.1 0.00 0.00 0.00 100 1007.7
20260506185818 15 174 4.8 16.1 0.00 0.00 0.00 100 1007.7
20260506185703 15 174 4.8 16.1 0.00 0.00 0.00 100 1007.8
20260506185618 15 174 4.8 16.1 0.00 0.00 0.00 100 1007.8
20260506185518 15 174 4.8 16.1 0.00 0.00 0.00 100 1007.7
20260506185418 15 174 4.8 16.1 0.00 0.00 0.00 100 1007.7
20260506185319 15 174 4.8 16.1 0.00 0.00 0.00 100 1007.7
20260506185219 15 174 4.8 16.1 0.00 0.00 0.00 100 1007.6
20260506185201 15 174 4.8 16.1 0.00 0.00 0.00 100 1007.7
20260506185117 15 174 4.8 16.1 0.00 0.00 0.00 100 1007.7
20260506185015 15 174 4.8 16.1 0.00 0.00 0.00 100 1007.7
20260506184916 15 174 4.8 16.1 0.00 0.00 0.00 100 1007.7
20260506184816 15 174 3.2 16.1 0.00 0.00 0.00 100 1007.7
20260506184702 15 174 3.2 16.1 0.00 0.00 0.00 100 1007.8
20260506184616 15 174 3.2 16.1 0.00 0.00 0.00 100 1007.8
20260506184516 15 174 3.2 16.1 0.00 0.00 0.00 100 1008.0
20260506184416 15 174 3.2 12.9 0.00 0.00 0.00 100 1007.9
20260506184317 15 174 3.2 12.9 0.00 0.00 0.00 100 1007.9
20260506184202 15 174 3.2 12.9 0.00 0.00 0.00 100 1007.8
20260506184115 15 174 3.2 12.9 0.00 0.00 0.00 100 1007.8
20260506184015 14 174 4.8 14.5 0.00 0.00 0.00 100 1007.8
20260506183915 15 174 4.8 14.5 0.00 0.00 0.00 100 1007.7
20260506183817 14 174 4.8 14.5 0.00 0.00 0.00 100 1007.8
20260506183715 14 174 4.8 14.5 0.00 0.00 0.00 100 1007.7
20260506183703 14 174 4.8 14.5 0.00 0.00 0.00 100 1007.8
20260506183614 15 174 4.8 14.5 0.00 0.00 0.00 100 1007.8
20260506183514 15 174 4.8 14.5 0.00 0.00 0.00 100 1007.8
20260506183414 14 174 4.8 14.5 0.00 0.00 0.00 100 1007.8
20260506183314 14 174 4.8 14.5 0.00 0.00 0.00 100 1007.9
20260506183214 14 174 4.8 14.5 0.00 0.00 0.00 100 1007.9
20260506183207 15 174 3.2 12.9 0.00 0.00 0.00 100 1008.0
20260506183201 14 174 3.2 14.5 0.00 0.00 0.00 100 1007.9
20260506183114 14 174 3.2 14.5 0.00 0.00 0.00 100 1007.9
20260506183013 15 174 3.2 12.9 0.00 0.00 0.00 100 1008.0
20260506182914 15 174 3.2 12.9 0.00 0.00 0.00 100 1007.9
20260506182821 15 174 3.2 12.9 0.00 0.00 0.00 100 1007.9
20260506182808 15 174 3.2 12.9 0.00 0.00 0.00 100 1008.0
20260506182615 15 174 3.2 12.9 0.00 0.00 0.00 100 1008.0
20260506182512 15 174 3.2 14.5 0.00 0.00 0.00 100 1008.0
20260506182411 15 174 3.2 14.5 0.00 0.00 0.00 100 1008.1
20260506182312 15 174 3.2 14.5 0.00 0.00 0.00 100 1008.2
20260506182211 15 174 3.2 14.5 0.00 0.00 0.00 100 1008.1
20260506182159 15 174 3.2 14.5 0.00 0.00 0.00 100 1008.1
20260506182110 15 174 3.2 14.5 0.00 0.00 0.00 100 1008.1
20260506182009 15 174 3.2 14.5 0.00 0.00 0.00 100 1008.1
20260506181910 15 174 3.2 14.5 0.00 0.00 0.00 100 1008.1
20260506181811 15 174 3.2 14.5 0.00 0.00 0.00 100 1008.2
20260506181711 15 174 3.2 14.5 0.00 0.00 0.00 100 1008.2
20260506181657 15 174 3.2 14.5 0.00 0.00 0.00 100 1008.2
20260506181610 15 174 3.2 14.5 0.00 0.00 0.00 100 1008.2
20260506181511 15 174 3.2 12.9 0.00 0.00 0.00 100 1008.2
20260506181410 15 174 3.2 12.9 0.00 0.00 0.00 100 1008.1
20260506181310 15 174 3.2 12.9 0.00 0.00 0.00 100 1008.2
20260506181210 15 174 3.2 12.9 0.00 0.00 0.00 100 1008.2
20260506181202 15 174 3.2 12.9 0.00 0.00 0.00 100 1008.2
20260506181157 15 174 3.2 12.9 0.00 0.00 0.00 100 1008.3
20260506181109 15 174 3.2 12.9 0.00 0.00 0.00 100 1008.3
20260506181009 15 174 3.2 12.9 0.00 0.00 0.00 100 1008.2
20260506180909 15 174 3.2 12.9 0.00 0.00 0.00 100 1008.3
20260506180820 15 174 3.2 12.9 0.00 0.00 0.00 100 1008.3
20260506180804 15 174 3.2 12.9 0.00 0.00 0.00 100 1008.3
20260506180610 15 174 3.2 11.3 0.00 0.00 0.00 100 1008.2
20260506180510 15 174 3.2 11.3 0.00 0.00 0.00 100 1008.3
20260506180411 15 174 3.2 11.3 0.00 0.00 0.00 100 1008.4
20260506180311 15 174 3.2 11.3 0.00 0.00 0.00 100 1008.3
20260506180210 15 174 3.2 11.3 0.00 0.00 0.00 100 1008.4
20260506180203 15 174 4.8 12.9 0.00 0.00 0.00 100 1008.5
20260506180158 15 174 4.8 11.3 0.00 0.00 0.00 100 1008.3
20260506180110 15 174 4.8 11.3 0.00 0.00 0.00 100 1008.3
20260506180009 15 174 4.8 11.3 0.00 0.00 0.00 100 1008.3
20260506175909 15 174 4.8 11.3 0.00 0.00 0.00 100 1008.3
20260506175818 15 174 4.8 11.3 0.00 0.00 0.00 100 1008.3
20260506175804 15 174 4.8 12.9 0.00 0.00 0.00 100 1008.4
20260506175610 15 174 4.8 12.9 0.00 0.00 0.00 100 1008.5
20260506175509 15 174 4.8 12.9 0.00 0.00 0.00 100 1008.6
20260506175409 15 174 4.8 12.9 0.00 0.00 0.00 100 1008.6
20260506175310 15 174 4.8 12.9 0.00 0.00 0.00 100 1008.7
20260506175209 15 174 4.8 12.9 0.00 0.00 0.00 100 1008.7
20260506175158 15 174 4.8 12.9 0.00 0.00 0.00 100 1008.7
20260506175110 15 174 4.8 12.9 0.00 0.00 0.00 100 1008.7
20260506175009 15 174 4.8 12.9 0.00 0.00 0.00 100 1008.8
20260506174911 15 174 4.8 20.9 0.00 0.00 0.00 100 1008.8
20260506174811 15 174 4.8 20.9 0.00 0.00 0.00 100 1008.7
20260506174710 15 175 4.8 20.9 0.00 0.00 0.00 100 1008.8
20260506174658 15 175 4.8 20.9 0.00 0.00 0.00 100 1008.7
20260506174609 15 175 4.8 20.9 0.00 0.00 0.00 100 1008.7
20260506174509 15 174 4.8 20.9 0.00 0.00 0.00 100 1008.8
20260506174411 15 174 4.8 20.9 0.00 0.00 0.00 100 1008.9
20260506174310 15 174 4.8 20.9 0.00 0.00 0.00 100 1008.9
20260506174211 16 174 4.8 20.9 0.00 0.00 0.00 100 1009.0
20260506174205 16 174 4.8 16.1 0.00 0.00 0.00 100 1009.1
20260506174158 16 174 4.8 20.9 0.00 0.00 0.00 100 1009.0
20260506174110 16 175 4.8 20.9 0.00 0.00 0.00 100 1009.0
20260506174011 16 174 4.8 20.9 0.00 0.00 0.00 100 1009.1
20260506173910 16 174 4.8 16.1 0.00 0.00 0.00 100 1009.1
20260506173822 16 175 4.8 16.1 0.00 0.00 0.00 100 1009.1
20260506173808 16 174 4.8 16.1 0.00 0.00 0.00 100 1009.0
20260506173657 16 174 4.8 16.1 0.00 0.00 0.00 100 1008.8
20260506173611 16 174 4.8 16.1 0.00 0.00 0.00 100 1008.8
20260506173509 16 174 4.8 16.1 0.00 0.00 0.00 100 1009.0
20260506173410 16 174 4.8 16.1 0.00 0.00 0.00 100 1009.1
20260506173319 16 174 4.8 16.1 0.00 0.00 0.00 100 1009.0
20260506173305 16 174 4.8 16.1 0.00 0.00 0.00 100 1009.1
20260506173110 16 174 4.8 16.1 0.00 0.00 0.00 100 1009.1
20260506173011 16 174 4.8 16.1 0.00 0.00 0.00 100 1009.1
20260506172910 16 174 4.8 16.1 0.00 0.00 0.00 100 1009.1
20260506172810 16 175 4.8 16.1 0.00 0.00 0.00 100 1009.1
20260506172711 16 174 4.8 16.1 0.00 0.00 0.00 100 1009.1
20260506172702 16 174 4.8 16.1 0.00 0.00 0.00 100 1009.0
20260506172657 16 174 4.8 16.1 0.00 0.00 0.00 100 1009.1
20260506172609 16 174 4.8 16.1 0.00 0.00 0.00 100 1009.1
20260506172511 16 174 4.8 16.1 0.00 0.00 0.00 100 1009.0
20260506172410 16 174 4.8 16.1 0.00 0.00 0.00 100 1009.0
20260506172319 16 174 4.8 16.1 0.00 0.00 0.00 100 1008.9
20260506172307 16 174 4.8 16.1 0.00 0.00 0.00 100 1008.9
20260506172109 16 174 4.8 16.1 0.00 0.00 0.00 100 1009.0
20260506172009 16 174 4.8 16.1 0.00 0.00 0.00 100 1009.1
20260506171910 16 174 4.8 16.1 0.00 0.00 0.00 100 1009.0
20260506171810 17 174 4.8 16.1 0.00 0.00 0.00 100 1009.0
20260506171709 17 174 4.8 16.1 0.00 0.00 0.00 100 1008.9
20260506171657 17 174 4.8 12.9 0.00 0.00 0.00 100 1008.9
20260506171609 17 174 4.8 16.1 0.00 0.00 0.00 100 1008.9
20260506171511 17 174 4.8 16.1 0.00 0.00 0.00 100 1009.0
20260506171411 17 174 4.8 16.1 0.00 0.00 0.00 100 1009.0
20260506171309 17 174 4.8 16.1 0.00 0.00 0.00 100 1009.0
20260506171211 17 174 4.8 16.1 0.00 0.00 0.00 100 1009.1
20260506171204 17 174 4.8 16.1 0.00 0.00 0.00 100 1009.2
20260506171159 17 174 4.8 16.1 0.00 0.00 0.00 100 1009.1
20260506171109 17 174 4.8 16.1 0.00 0.00 0.00 100 1009.1
20260506171011 17 174 4.8 16.1 0.00 0.00 0.00 100 1009.0
20260506170909 17 174 4.8 16.1 0.00 0.00 0.00 100 1009.1
20260506170818 17 174 4.8 16.1 0.00 0.00 0.00 100 1009.2
20260506170803 17 174 4.8 16.1 0.00 0.00 0.00 100 1009.2
20260506170610 17 174 4.8 16.1 0.00 0.00 0.00 100 1009.2
20260506170510 17 174 4.8 16.1 0.00 0.00 0.00 100 1009.2
20260506170410 17 174 4.8 16.1 0.00 0.00 0.00 100 1009.2
20260506170309 17 174 4.8 16.1 0.00 0.00 0.00 100 1009.1
20260506170212 17 174 4.8 16.1 0.00 0.00 0.00 100 1009.2
20260506170159 17 174 6.4 16.1 0.00 0.00 0.00 100 1009.2
20260506170111 17 174 6.4 16.1 0.00 0.00 0.00 100 1009.2
20260506170012 17 174 6.4 16.1 0.00 0.00 0.00 100 1009.2
20260506165911 17 174 4.8 16.1 0.00 0.00 0.00 100 1009.1
20260506165811 17 174 4.8 17.7 0.00 0.00 0.00 100 1009.1
20260506165710 17 174 4.8 17.7 0.00 0.00 0.00 100 1009.3
20260506165658 17 174 4.8 17.7 0.00 0.00 0.00 100 1009.2
20260506165611 17 174 4.8 17.7 0.00 0.00 0.00 100 1009.2
20260506165510 17 174 4.8 17.7 0.00 0.00 0.00 100 1009.1
20260506165409 17 174 4.8 17.7 0.00 0.00 0.00 100 1009.1
20260506165309 17 174 4.8 17.7 0.00 0.00 0.00 100 1009.2
20260506165209 17 174 4.8 17.7 0.00 0.00 0.00 100 1009.1
20260506165158 17 174 4.8 17.7 0.00 0.00 0.00 100 1009.2
20260506165110 17 174 4.8 17.7 0.00 0.00 0.00 100 1009.2
20260506165011 17 174 4.8 17.7 0.00 0.00 0.00 100 1009.2
20260506164910 17 174 4.8 17.7 0.00 0.00 0.00 100 1009.1
20260506164811 17 174 4.8 14.5 0.00 0.00 0.00 100 1009.2
20260506164710 17 174 3.2 14.5 0.00 0.00 0.00 3 1009.2
20260506164657 17 174 3.2 14.5 0.00 0.00 0.00 3 1009.2
20260506164611 17 174 3.2 14.5 0.00 0.00 0.00 3 1009.2
20260506164510 17 174 4.8 14.5 0.00 0.00 0.00 3 1009.2
20260506164410 17 174 3.2 14.5 0.00 0.00 0.00 1 1009.4
20260506164310 17 174 3.2 14.5 0.00 0.00 0.00 100 1009.3
20260506164212 17 174 3.2 12.9 0.00 0.00 0.00 100 1009.5
20260506164111 17 174 3.2 12.9 0.00 0.00 0.00 100 1009.5
20260506164010 17 174 3.2 12.9 0.00 0.00 0.00 100 1009.5
20260506163910 17 174 3.2 12.9 0.00 0.00 0.00 100 1009.4
20260506163809 17 174 4.8 12.9 0.00 0.00 0.00 100 1009.4
20260506163711 17 174 4.8 12.9 0.00 0.00 0.00 100 1009.3
20260506163657 17 174 4.8 14.5 0.00 0.00 0.00 100 1009.3
20260506163610 17 174 4.8 14.5 0.00 0.00 0.00 100 1009.3
20260506163510 17 174 4.8 19.3 0.00 0.00 0.00 100 1009.3
20260506163410 17 174 4.8 19.3 0.00 0.00 0.00 100 1009.4
20260506163309 17 173 6.4 19.3 0.00 0.00 0.00 100 1009.3
20260506163209 17 174 6.4 19.3 0.00 0.00 0.00 100 1009.3
20260506163159 17 174 6.4 19.3 0.00 0.00 0.00 2 1009.3
20260506163110 17 174 6.4 19.3 0.00 0.00 0.00 2 1009.3
20260506163009 17 173 6.4 19.3 0.00 0.00 0.00 5 1009.3
20260506162909 17 173 6.4 19.3 0.00 0.00 0.00 5 1009.2
20260506162809 17 174 6.4 19.3 0.00 0.00 0.00 5 1009.3
20260506162710 17 174 6.4 19.3 0.00 0.00 0.00 5 1009.3
20260506162658 17 174 6.4 19.3 0.00 0.00 0.00 5 1009.3
20260506162609 17 174 6.4 19.3 0.00 0.00 0.00 8 1009.3
20260506162509 17 174 6.4 19.3 0.00 0.00 0.00 9 1009.4
20260506162410 17 174 4.8 19.3 0.00 0.00 0.00 9 1009.3
20260506162310 17 174 4.8 19.3 0.00 0.00 0.00 8 1009.3
20260506162210 17 174 4.8 22.5 0.00 0.00 0.00 7 1009.3
20260506162159 17 174 4.8 22.5 0.00 0.00 0.00 7 1009.3
20260506162110 17 174 4.8 22.5 0.00 0.00 0.00 8 1009.3
20260506162011 17 174 4.8 22.5 0.00 0.00 0.00 8 1009.2
20260506161910 17 174 4.8 22.5 0.00 0.00 0.00 9 1009.3
20260506161810 17 174 4.8 22.5 0.00 0.00 0.00 9 1009.3
20260506161709 17 174 4.8 22.5 0.00 0.00 0.00 7 1009.4
20260506161658 17 174 4.8 22.5 0.00 0.00 0.00 7 1009.3
20260506161609 17 174 4.8 22.5 0.00 0.00 0.00 7 1009.3
20260506161510 17 174 4.8 22.5 0.00 0.00 0.00 7 1009.4
20260506161409 17 174 4.8 22.5 0.00 0.00 0.00 10 1009.4
20260506161309 17 174 4.8 22.5 0.00 0.00 0.00 11 1009.5
20260506161210 17 174 4.8 14.5 0.00 0.00 0.00 10 1009.5
20260506161205 17 173 4.8 19.3 0.00 0.00 0.00 15 1009.6
20260506161159 17 174 4.8 14.5 0.00 0.00 0.00 10 1009.6
20260506161111 17 174 4.8 14.5 0.00 0.00 0.00 9 1009.6
20260506161011 17 174 4.8 14.5 0.00 0.00 0.00 9 1009.6
20260506160911 17 174 4.8 16.1 0.00 0.00 0.00 10 1009.5
20260506160822 17 174 4.8 16.1 0.00 0.00 0.00 12 1009.4
20260506160809 17 174 6.4 16.1 0.00 0.00 0.00 16 1009.5
20260506160658 17 174 4.8 16.1 0.00 0.00 0.00 16 1009.5
20260506160610 17 174 4.8 16.1 0.00 0.00 0.00 16 1009.5
20260506160511 17 174 4.8 16.1 0.00 0.00 0.00 17 1009.5
20260506160410 17 174 4.8 19.3 0.00 0.00 0.00 14 1009.7
20260506160326 18 173 4.8 25.7 0.00 0.00 0.00 9 1009.8
20260506160319 17 174 4.8 19.3 0.00 0.00 0.00 14 1009.6
20260506160305 17 173 4.8 19.3 0.00 0.00 0.00 14 1009.6
20260506160110 17 173 4.8 19.3 0.00 0.00 0.00 9 1009.6
20260506160009 18 174 4.8 19.3 0.00 0.00 0.00 9 1009.7
20260506155910 18 174 4.8 25.7 0.00 0.00 0.00 9 1009.7
20260506155818 18 173 4.8 25.7 0.00 0.00 0.00 9 1009.7
20260506155804 18 173 4.8 25.7 0.00 0.00 0.00 9 1009.9
20260506155609 18 173 4.8 25.7 0.00 0.00 0.00 9 1009.8
20260506155509 17 173 6.4 25.7 0.00 0.00 0.00 5 1009.8
20260506155411 17 173 4.8 25.7 0.00 0.00 0.00 2 1009.8
20260506155311 17 173 4.8 25.7 0.00 0.00 0.00 5 1009.9
20260506155210 17 173 4.8 25.7 0.00 0.00 0.00 5 1009.8
20260506155203 17 173 4.8 19.3 0.00 0.00 0.00 100 1009.8
20260506155158 17 173 4.8 25.7 0.00 0.00 0.00 5 1009.9
20260506155109 17 173 4.8 25.7 0.00 0.00 0.00 5 1009.9
20260506155011 17 173 4.8 25.7 0.00 0.00 0.00 3 1009.8
20260506154911 17 172 4.8 19.3 0.00 0.00 0.00 100 1010.0
20260506154819 17 172 4.8 19.3 0.00 0.00 0.00 100 1010.0
20260506154804 17 172 4.8 19.3 0.00 0.00 0.00 100 1009.9
20260506154610 17 172 4.8 19.3 0.00 0.00 0.00 100 1009.8
20260506154510 17 172 4.8 19.3 0.00 0.00 0.00 100 1010.0
20260506154410 17 173 4.8 19.3 0.00 0.00 0.00 100 1010.0
20260506154309 17 173 4.8 25.7 0.00 0.00 0.00 100 1010.1
20260506154210 17 173 4.8 25.7 0.00 0.00 0.00 100 1010.1
20260506154158 17 173 4.8 25.7 0.00 0.00 0.00 100 1010.1
20260506154109 17 173 4.8 25.7 0.00 0.00 0.00 1 1010.1
20260506154011 17 173 4.8 25.7 0.00 0.00 0.00 1 1010.0
20260506153911 17 172 4.8 25.7 0.00 0.00 0.00 1 1010.0
20260506153811 17 173 4.8 25.7 0.00 0.00 0.00 1 1009.9
20260506153710 17 173 4.8 25.7 0.00 0.00 0.00 100 1010.0
20260506153658 17 173 4.8 25.7 0.00 0.00 0.00 100 1009.9
20260506153610 17 173 4.8 25.7 0.00 0.00 0.00 100 1009.9
20260506153509 17 173 4.8 25.7 0.00 0.00 0.00 100 1010.0
20260506153410 17 173 6.4 25.7 0.00 0.00 0.00 100 1009.9
20260506153309 17 173 6.4 25.7 0.00 0.00 0.00 100 1010.1
20260506153210 17 173 6.4 25.7 0.00 0.00 0.00 100 1009.9
20260506153159 17 173 6.4 25.7 0.00 0.00 0.00 100 1010.0
20260506153110 17 173 6.4 25.7 0.00 0.00 0.00 100 1010.0
20260506153009 17 173 6.4 25.7 0.00 0.00 0.00 100 1009.9
20260506152909 17 173 6.4 25.7 0.00 0.00 0.00 100 1009.9
20260506152809 17 173 6.4 25.7 0.00 0.00 0.00 100 1010.1
20260506152709 17 173 6.4 25.7 0.00 0.00 0.00 100 1009.9
20260506152658 17 173 6.4 25.7 0.00 0.00 0.00 100 1009.9
20260506152609 17 173 6.4 25.7 0.00 0.00 0.00 100 1009.9
20260506152509 17 173 6.4 25.7 0.00 0.00 0.00 1 1009.9
20260506152410 17 173 6.4 25.7 0.00 0.00 0.00 100 1009.9
20260506152309 17 173 4.8 24.1 0.00 0.00 0.00 1 1009.9
20260506152210 17 173 4.8 24.1 0.00 0.00 0.00 1 1009.9
20260506152159 17 173 4.8 24.1 0.00 0.00 0.00 1 1009.9
20260506152109 17 173 4.8 24.1 0.00 0.00 0.00 1 1009.9
20260506152010 17 173 4.8 24.1 0.00 0.00 0.00 4 1009.9
20260506151910 17 173 4.8 17.7 0.00 0.00 0.00 4 1009.9
20260506151809 17 174 4.8 17.7 0.00 0.00 0.00 4 1009.8
20260506151712 17 173 4.8 17.7 0.00 0.00 0.00 5 1009.8
20260506151658 17 173 4.8 17.7 0.00 0.00 0.00 5 1009.8
20260506151611 17 174 4.8 17.7 0.00 0.00 0.00 6 1009.8
20260506151511 17 173 4.8 17.7 0.00 0.00 0.00 6 1009.8
20260506151410 17 173 4.8 17.7 0.00 0.00 0.00 6 1009.6
20260506151311 17 174 4.8 19.3 0.00 0.00 0.00 6 1009.7
20260506151210 17 174 6.4 19.3 0.00 0.00 0.00 7 1009.7
20260506151203 17 174 6.4 19.3 0.00 0.00 0.00 14 1009.9
20260506151159 17 174 6.4 19.3 0.00 0.00 0.00 7 1009.8
20260506151110 17 174 6.4 19.3 0.00 0.00 0.00 8 1009.8
20260506151010 17 174 6.4 19.3 0.00 0.00 0.00 13 1009.8
20260506150910 17 174 6.4 19.3 0.00 0.00 0.00 13 1009.8
20260506150820 17 174 6.4 19.3 0.00 0.00 0.00 13 1009.8
20260506150805 17 174 6.4 19.3 0.00 0.00 0.00 14 1009.9
20260506150610 17 175 6.4 19.3 0.00 0.00 0.00 15 1009.9
20260506150509 17 175 4.8 19.3 0.00 0.00 0.00 15 1009.9
20260506150409 17 175 4.8 19.3 0.00 0.00 0.00 16 1010.0
20260506150309 17 175 4.8 25.7 0.00 0.00 0.00 18 1009.9
20260506150209 17 176 4.8 25.7 0.00 0.00 0.00 17 1010.0
20260506150159 17 176 4.8 25.7 0.00 0.00 0.00 17 1010.0
20260506150110 17 176 4.8 25.7 0.00 0.00 0.00 18 1010.0
20260506150011 17 176 4.8 25.7 0.00 0.00 0.00 18 1010.0
20260506145909 17 176 4.8 25.7 0.00 0.00 0.00 17 1010.1
20260506145809 17 177 4.8 25.7 0.00 0.00 0.00 16 1010.0
20260506145709 17 177 4.8 25.7 0.00 0.00 0.00 18 1009.8
20260506145703 18 179 6.4 25.7 0.00 0.00 0.00 23 1009.9
20260506145658 17 178 4.8 25.7 0.00 0.00 0.00 18 1009.9
20260506145611 17 178 4.8 25.7 0.00 0.00 0.00 20 1009.9
20260506145510 17 178 6.4 25.7 0.00 0.00 0.00 21 1009.9
20260506145410 18 178 6.4 25.7 0.00 0.00 0.00 21 1009.8
20260506145318 18 178 6.4 25.7 0.00 0.00 0.00 21 1009.7
20260506145306 18 179 6.4 25.7 0.00 0.00 0.00 23 1009.8
20260506145110 18 179 6.4 25.7 0.00 0.00 0.00 24 1009.9
20260506145011 18 179 6.4 25.7 0.00 0.00 0.00 22 1009.8
20260506144910 18 179 6.4 25.7 0.00 0.00 0.00 21 1009.7
20260506144810 18 179 6.4 25.7 0.00 0.00 0.00 21 1009.8
20260506144709 18 180 6.4 20.9 0.00 0.00 0.00 24 1009.7
20260506144703 18 179 6.4 20.9 0.00 0.00 0.00 26 1009.9
20260506144659 18 181 6.4 20.9 0.00 0.00 0.00 24 1009.8
20260506144611 18 179 6.4 20.9 0.00 0.00 0.00 24 1009.8
20260506144510 18 179 6.4 20.9 0.00 0.00 0.00 24 1009.8
20260506144410 18 180 6.4 20.9 0.00 0.00 0.00 26 1009.9
20260506144319 18 180 6.4 20.9 0.00 0.00 0.00 26 1009.8
20260506144305 18 179 6.4 20.9 0.00 0.00 0.00 26 1009.8
20260506144110 18 179 6.4 20.9 0.00 0.00 0.00 26 1009.9
20260506144011 18 179 6.4 20.9 0.00 0.00 0.00 27 1009.8
20260506143909 18 179 4.8 20.9 0.00 0.00 0.00 24 1009.7
20260506143809 18 180 4.8 17.7 0.00 0.00 0.00 23 1009.9
20260506143709 18 179 4.8 17.7 0.00 0.00 0.00 23 1009.9
20260506143658 18 179 4.8 17.7 0.00 0.00 0.00 23 1009.9
20260506143610 18 179 4.8 17.7 0.00 0.00 0.00 20 1009.9
20260506143509 18 179 4.8 17.7 0.00 0.00 0.00 20 1009.8
20260506143410 18 179 4.8 17.7 0.00 0.00 0.00 18 1009.9
20260506143310 18 179 3.2 17.7 0.00 0.00 0.00 19 1010.0
20260506143209 18 179 4.8 16.1 0.00 0.00 0.00 20 1010.0
20260506143157 18 179 3.2 16.1 0.00 0.00 0.00 20 1009.9
20260506143110 18 179 3.2 16.1 0.00 0.00 0.00 14 1009.9
20260506143009 18 179 4.8 16.1 0.00 0.00 0.00 14 1009.9
20260506142910 18 180 4.8 16.1 0.00 0.00 0.00 14 1010.0
20260506142810 18 180 4.8 16.1 0.00 0.00 0.00 12 1010.0
20260506142709 18 180 4.8 16.1 0.00 0.00 0.00 6 1009.9
20260506142657 18 180 4.8 16.1 0.00 0.00 0.00 6 1010.0
20260506142609 18 179 4.8 16.1 0.00 0.00 0.00 6 1010.0
20260506142510 18 179 4.8 16.1 0.00 0.00 0.00 7 1010.0
20260506142411 17 179 4.8 16.1 0.00 0.00 0.00 9 1010.0
20260506142310 17 180 4.8 16.1 0.00 0.00 0.00 1 1010.1
20260506142210 17 179 4.8 16.1 0.00 0.00 0.00 1 1010.1
20260506142157 17 179 4.8 16.1 0.00 0.00 0.00 1 1010.1
20260506142111 17 179 4.8 16.1 0.00 0.00 0.00 1 1010.1
20260506142010 17 179 4.8 16.1 0.00 0.00 0.00 1 1010.1
20260506141911 17 179 4.8 16.1 0.00 0.00 0.00 3 1010.1
20260506141811 17 179 4.8 14.5 0.00 0.00 0.00 3 1010.3
20260506141710 17 180 4.8 14.5 0.00 0.00 0.00 100 1010.3
20260506141657 17 180 4.8 14.5 0.00 0.00 0.00 100 1010.3
20260506141610 17 180 4.8 14.5 0.00 0.00 0.00 100 1010.3
20260506141509 17 179 4.8 19.3 0.00 0.00 0.00 100 1010.4
20260506141409 17 179 4.8 19.3 0.00 0.00 0.00 100 1010.3
20260506141310 17 179 4.8 19.3 0.00 0.00 0.00 100 1010.4
20260506141210 17 179 4.8 19.3 0.00 0.00 0.00 100 1010.4
20260506141158 17 179 6.4 19.3 0.00 0.00 0.00 100 1010.4
20260506141110 17 179 6.4 19.3 0.00 0.00 0.00 100 1010.4
20260506141009 17 179 6.4 19.3 0.00 0.00 0.00 100 1010.5
20260506140909 17 179 6.4 19.3 0.00 0.00 0.00 100 1010.4
20260506140809 17 179 6.4 19.3 0.00 0.00 0.00 100 1010.5
20260506140709 17 179 6.4 19.3 0.00 0.00 0.00 100 1010.4
20260506140703 17 180 4.8 16.1 0.00 0.00 0.00 100 1010.3
20260506140657 17 179 6.4 19.3 0.00 0.00 0.00 100 1010.4
20260506140609 17 180 6.4 19.3 0.00 0.00 0.00 100 1010.4
20260506140510 17 181 4.8 19.3 0.00 0.00 0.00 100 1010.3
20260506140410 17 180 4.8 19.3 0.00 0.00 0.00 100 1010.3
20260506140319 17 180 4.8 19.3 0.00 0.00 0.00 100 1010.3
20260506140305 17 180 4.8 16.1 0.00 0.00 0.00 100 1010.3
20260506140110 17 180 4.8 16.1 0.00 0.00 0.00 100 1010.3
20260506140009 17 180 4.8 16.1 0.00 0.00 0.00 100 1010.3
20260506135910 17 180 6.4 19.3 0.00 0.00 0.00 100 1010.3
20260506135810 17 180 6.4 25.7 0.00 0.00 0.00 100 1010.3
20260506135710 17 180 6.4 25.7 0.00 0.00 0.00 100 1010.3
20260506135659 17 180 6.4 25.7 0.00 0.00 0.00 100 1010.3
20260506135610 17 179 6.4 25.7 0.00 0.00 0.00 100 1010.3
20260506135510 17 180 8.0 25.7 0.00 0.00 0.00 100 1010.3
20260506135410 17 180 8.0 25.7 0.00 0.00 0.00 100 1010.1
20260506135310 17 180 8.0 25.7 0.00 0.00 0.00 1 1010.0
20260506135211 17 180 8.0 25.7 0.00 0.00 0.00 3 1009.9
20260506135158 17 180 8.0 25.7 0.00 0.00 0.00 3 1010.0
20260506135110 17 179 8.0 25.7 0.00 0.00 0.00 4 1010.0
20260506135010 17 180 8.0 25.7 0.00 0.00 0.00 4 1009.9
20260506134909 17 180 8.0 25.7 0.00 0.00 0.00 3 1010.0
20260506134811 17 180 8.0 19.3 0.00 0.00 0.00 3 1009.9
20260506134709 17 179 8.0 19.3 0.00 0.00 0.00 4 1009.8
20260506134657 17 179 8.0 19.3 0.00 0.00 0.00 3 1009.8
20260506134609 17 179 8.0 19.3 0.00 0.00 0.00 3 1009.8
20260506134511 17 179 6.4 19.3 0.00 0.00 0.00 3 1010.0
20260506134410 17 180 6.4 19.3 0.00 0.00 0.00 2 1010.0
20260506134310 17 180 6.4 20.9 0.00 0.00 0.00 3 1009.8
20260506134211 17 180 6.4 20.9 0.00 0.00 0.00 3 1010.0
20260506134159 17 180 6.4 20.9 0.00 0.00 0.00 4 1010.1
20260506134109 17 180 6.4 20.9 0.00 0.00 0.00 5 1010.1
20260506134011 17 179 6.4 20.9 0.00 0.00 0.00 5 1009.9
20260506133909 17 179 6.4 20.9 0.00 0.00 0.00 6 1009.9
20260506133809 17 179 6.4 20.9 0.00 0.00 0.00 6 1009.8
20260506133709 17 181 6.4 20.9 0.00 0.00 0.00 7 1009.7
20260506133657 17 180 6.4 20.9 0.00 0.00 0.00 7 1009.8
20260506133610 17 180 6.4 20.9 0.00 0.00 0.00 8 1009.8
20260506133510 17 180 6.4 20.9 0.00 0.00 0.00 7 1009.7
20260506133410 17 180 6.4 20.9 0.00 0.00 0.00 5 1009.8
20260506133309 17 179 6.4 14.5 0.00 0.00 0.00 5 1009.7
20260506133210 17 180 6.4 24.1 0.00 0.00 0.00 7 1009.9
20260506133159 17 179 6.4 24.1 0.00 0.00 0.00 7 1009.9
20260506133110 17 180 6.4 24.1 0.00 0.00 0.00 4 1009.9
20260506133009 17 179 6.4 24.1 0.00 0.00 0.00 4 1010.0
20260506132909 17 180 4.8 24.1 0.00 0.00 0.00 6 1010.0
20260506132810 17 180 4.8 24.1 0.00 0.00 0.00 6 1010.0
20260506132710 17 180 4.8 24.1 0.00 0.00 0.00 8 1009.9
20260506132702 17 181 4.8 19.3 0.00 0.00 0.00 10 1009.8
20260506132658 17 180 4.8 24.1 0.00 0.00 0.00 8 1010.1
20260506132610 17 181 4.8 24.1 0.00 0.00 0.00 10 1010.1
20260506132510 17 180 4.8 24.1 0.00 0.00 0.00 10 1010.1
20260506132409 17 181 4.8 24.1 0.00 0.00 0.00 10 1010.1
20260506132324 17 181 4.8 24.1 0.00 0.00 0.00 8 1010.0
20260506132307 17 181 4.8 19.3 0.00 0.00 0.00 8 1009.9
20260506132301 17 181 4.8 19.3 0.00 0.00 0.00 8 1009.9
20260506132109 17 181 4.8 19.3 0.00 0.00 0.00 12 1009.9
20260506132009 17 181 4.8 19.3 0.00 0.00 0.00 12 1009.9
20260506131906 17 181 4.8 19.3 0.00 0.00 0.00 11 1009.9
20260506131823 17 180 4.8 19.3 0.00 0.00 0.00 11 1009.8
20260506131817 17 181 6.4 19.3 0.00 0.00 0.00 12 1009.8
20260506131800 17 181 4.8 19.3 0.00 0.00 0.00 10 1009.8
20260506131604 17 181 4.8 19.3 0.00 0.00 0.00 10 1009.7
20260506131504 17 181 4.8 19.3 0.00 0.00 0.00 9 1009.8
20260506131403 17 180 4.8 19.3 0.00 0.00 0.00 6 1009.8
20260506131316 17 180 4.8 19.3 0.00 0.00 0.00 6 1009.8
20260506131302 17 181 4.8 19.3 0.00 0.00 0.00 11 1009.8
20260506131102 17 180 6.4 19.3 0.00 0.00 0.00 10 1009.8
20260506131002 17 180 4.8 19.3 0.00 0.00 0.00 10 1009.9
20260506130901 17 179 4.8 12.9 0.00 0.00 0.00 10 1010.0
20260506130801 17 179 4.8 12.9 0.00 0.00 0.00 10 1010.1
20260506130657 17 179 4.8 12.9 0.00 0.00 0.00 10 1010.1
20260506130600 17 179 4.8 14.5 0.00 0.00 0.00 10 1010.1
20260506130501 17 179 4.8 14.5 0.00 0.00 0.00 11 1010.3
20260506130357 17 179 4.8 14.5 0.00 0.00 0.00 10 1010.1
20260506130257 17 179 4.8 14.5 0.00 0.00 0.00 9 1010.1
20260506130154 17 179 4.8 14.5 0.00 0.00 0.00 9 1010.1
20260506130056 17 179 4.8 14.5 0.00 0.00 0.00 9 1010.1
20260506125957 17 179 4.8 14.5 0.00 0.00 0.00 11 1010.3
20260506125857 17 179 4.8 14.5 0.00 0.00 0.00 11 1010.1
20260506125752 17 179 4.8 14.5 0.00 0.00 0.00 11 1010.1
20260506125651 17 179 4.8 14.5 0.00 0.00 0.00 11 1010.4
20260506125547 17 179 4.8 12.9 0.00 0.00 0.00 8 1010.3
20260506125447 17 179 4.8 12.9 0.00 0.00 0.00 8 1010.3
20260506125348 17 179 4.8 12.9 0.00 0.00 0.00 9 1010.4
20260506125248 17 179 4.8 22.5 0.00 0.00 0.00 100 1010.3
20260506125148 17 179 4.8 22.5 0.00 0.00 0.00 100 1010.4
20260506125047 17 179 4.8 22.5 0.00 0.00 0.00 100 1010.4
20260506124947 17 179 4.8 22.5 0.00 0.00 0.00 100 1010.3
20260506124847 17 180 4.8 22.5 0.00 0.00 0.00 4 1010.4
20260506124748 17 179 4.8 22.5 0.00 0.00 0.00 4 1010.3
20260506124652 17 179 4.8 22.5 0.00 0.00 0.00 2 1010.4
20260506124648 17 180 4.8 22.5 0.00 0.00 0.00 2 1010.4
20260506124546 17 180 4.8 22.5 0.00 0.00 0.00 1 1010.4
20260506124446 17 179 4.8 22.5 0.00 0.00 0.00 1 1010.4
20260506124347 17 179 4.8 22.5 0.00 0.00 0.00 100 1010.5
20260506124243 17 179 4.8 16.1 0.00 0.00 0.00 100 1010.5
20260506124144 17 179 4.8 16.1 0.00 0.00 0.00 100 1010.6
20260506124045 17 180 4.8 16.1 0.00 0.00 0.00 100 1010.5
20260506123944 17 179 4.8 16.1 0.00 0.00 0.00 100 1010.5
20260506123843 17 179 4.8 16.1 0.00 0.00 0.00 100 1010.5
20260506123743 17 180 4.8 16.1 0.00 0.00 0.00 100 1010.6
20260506123648 17 180 4.8 16.1 0.00 0.00 0.00 100 1010.4
20260506123643 17 179 4.8 16.1 0.00 0.00 0.00 100 1010.4
20260506123544 17 179 4.8 16.1 0.00 0.00 0.00 100 1010.4
20260506123443 17 179 4.8 16.1 0.00 0.00 0.00 100 1010.5
20260506123345 17 179 4.8 16.1 0.00 0.00 0.00 100 1010.4
20260506123243 17 179 4.8 16.1 0.00 0.00 0.00 100 1010.4
20260506123143 17 179 4.8 16.1 0.00 0.00 0.00 100 1010.5
20260506123044 17 179 4.8 17.7 0.00 0.00 0.00 100 1010.4
20260506122944 17 179 6.4 17.7 0.00 0.00 0.00 100 1010.5
20260506122843 17 179 4.8 17.7 0.00 0.00 0.00 100 1010.4
20260506122741 17 179 4.8 17.7 0.00 0.00 0.00 100 1010.4
20260506122639 17 179 6.4 17.7 0.00 0.00 0.00 100 1010.5
20260506122537 17 179 6.4 20.9 0.00 0.00 0.00 100 1010.5
20260506122438 17 179 6.4 20.9 0.00 0.00 0.00 100 1010.4
20260506122338 17 179 6.4 20.9 0.00 0.00 0.00 100 1010.5
20260506122236 17 179 6.4 20.9 0.00 0.00 0.00 100 1010.5
20260506122136 17 179 6.4 20.9 0.00 0.00 0.00 100 1010.4
20260506122036 17 179 6.4 20.9 0.00 0.00 0.00 100 1010.6
20260506121935 17 179 4.8 20.9 0.00 0.00 0.00 100 1010.6
20260506121835 17 179 4.8 20.9 0.00 0.00 0.00 100 1010.5
20260506121736 17 179 4.8 20.9 0.00 0.00 0.00 100 1010.6
20260506121632 17 179 4.8 20.9 0.00 0.00 0.00 100 1010.5
20260506121532 17 179 4.8 20.9 0.00 0.00 0.00 100 1010.5
20260506121431 17 178 4.8 20.9 0.00 0.00 0.00 100 1010.3
20260506121328 17 178 4.8 20.9 0.00 0.00 0.00 100 1010.3
20260506121228 17 178 4.8 20.9 0.00 0.00 0.00 100 1010.3
20260506121143 16 178 4.8 20.9 0.00 0.00 0.00 100 1010.3
20260506121127 16 179 4.8 20.9 0.00 0.00 0.00 100 1010.3
20260506121025 16 178 4.8 20.9 0.00 0.00 0.00 100 1010.4
20260506120925 16 179 4.8 20.9 0.00 0.00 0.00 100 1010.4
20260506120824 16 178 6.4 20.9 0.00 0.00 0.00 100 1010.5
20260506120725 16 178 6.4 20.9 0.00 0.00 0.00 100 1010.4
20260506120625 16 178 6.4 20.9 0.00 0.00 0.00 100 1010.3
20260506120524 16 178 4.8 16.1 0.00 0.00 0.00 100 1010.3
20260506120420 16 178 4.8 16.1 0.00 0.00 0.00 100 1010.4
20260506120320 16 178 4.8 17.7 0.00 0.00 0.00 100 1010.4
20260506120219 16 178 4.8 17.7 0.00 0.00 0.00 100 1010.3
20260506120121 16 178 4.8 17.7 0.00 0.00 0.00 100 1010.5
20260506120021 16 178 4.8 17.7 0.00 0.00 0.00 100 1010.4
20260506115919 16 178 4.8 17.7 0.00 0.00 0.00 100 1010.4
20260506115818 16 179 4.8 17.7 0.00 0.00 0.00 100 1010.4
20260506115717 16 178 4.8 17.7 0.00 0.00 0.00 100 1010.4
20260506115617 16 178 4.8 17.7 0.00 0.00 0.00 100 1010.4
20260506115517 16 178 4.8 17.7 0.00 0.00 0.00 100 1010.5
20260506115416 16 178 4.8 17.7 0.00 0.00 0.00 100 1010.5
20260506115314 16 178 4.8 17.7 0.00 0.00 0.00 100 1010.4
20260506115212 16 178 4.8 17.7 0.00 0.00 0.00 100 1010.5
20260506115112 16 178 4.8 17.7 0.00 0.00 0.00 100 1010.5
20260506115012 16 178 4.8 17.7 0.00 0.00 0.00 100 1010.4
20260506114913 16 178 4.8 17.7 0.00 0.00 0.00 100 1010.5
20260506114811 16 178 4.8 17.7 0.00 0.00 0.00 100 1010.4
20260506114712 16 178 4.8 17.7 0.00 0.00 0.00 100 1010.4
20260506114612 16 178 4.8 17.7 0.00 0.00 0.00 100 1010.4
20260506114512 16 178 4.8 17.7 0.00 0.00 0.00 100 1010.4
20260506114412 16 178 4.8 17.7 0.00 0.00 0.00 100 1010.4
20260506114311 16 178 4.8 16.1 0.00 0.00 0.00 100 1010.4
20260506114211 16 178 4.8 16.1 0.00 0.00 0.00 100 1010.4
20260506114109 16 178 4.8 16.1 0.00 0.00 0.00 100 1010.4
20260506114011 16 177 4.8 16.1 0.00 0.00 0.00 100 1010.5
20260506113911 16 177 4.8 16.1 0.00 0.00 0.00 100 1010.5
20260506113811 16 178 4.8 16.1 0.00 0.00 0.00 100 1010.5
20260506113710 16 178 4.8 29.0 0.00 0.00 0.00 100 1010.5
20260506113610 16 178 4.8 29.0 0.00 0.00 0.00 100 1010.4
20260506113508 16 179 4.8 29.0 0.00 0.00 0.00 100 1010.5
20260506113409 16 179 4.8 29.0 0.00 0.00 0.00 100 1010.5
20260506113308 16 179 4.8 29.0 0.00 0.00 0.00 100 1010.5
20260506113209 15 179 4.8 29.0 0.00 0.00 0.00 100 1010.5
20260506113135 15 179 4.8 29.0 0.00 0.00 0.00 100 1010.5
20260506113107 15 178 4.8 29.0 0.00 0.00 0.00 100 1010.4
20260506113009 15 178 4.8 29.0 0.00 0.00 0.00 100 1010.5
20260506112907 15 178 4.8 29.0 0.00 0.00 0.00 100 1010.5
20260506112809 15 178 4.8 29.0 0.00 0.00 0.00 100 1010.5
20260506112708 15 178 4.8 17.7 0.00 0.00 0.00 100 1010.5
20260506112608 15 178 4.8 17.7 0.00 0.00 0.00 100 1010.5
20260506112507 15 178 4.8 17.7 0.00 0.00 0.00 100 1010.5
20260506112408 15 178 4.8 17.7 0.00 0.00 0.00 100 1010.4
20260506112307 15 178 4.8 17.7 0.00 0.00 0.00 100 1010.4
20260506112207 15 178 6.4 17.7 0.00 0.00 0.00 100 1010.5
20260506112107 15 177 6.4 17.7 0.00 0.00 0.00 100 1010.5
20260506112008 15 177 6.4 17.7 0.00 0.00 0.00 100 1010.4
20260506111906 15 177 6.4 17.7 0.00 0.00 0.00 100 1010.5
20260506111805 15 176 6.4 17.7 0.00 0.00 0.00 100 1010.5
20260506111703 -17 177 6.4 17.7 0.00 0.00 0.00 1010.5
20260506111633 -17 0.0 0.0 0.00 0.00 0.00 1010.5
20260506111601 -17 0.0 0.0 0.00 0.00 0.00 1010.4
20260506111416 -17 0.0 0.0 0.00 0.00 0.00 1010.4
20260506111309 -17 0.0 0.0 0.00 0.00 0.00 1010.5
20260506111206 -17 0.0 0.0 0.00 0.00 0.00 1010.5
20260506111106 -17 0.0 0.0 0.00 0.00 0.00 1010.4
20260506111006 -17 0.0 0.0 0.00 0.00 0.00 1010.4
20260506110830 -17 0.0 0.0 0.00 0.00 0.00 1010.4
20260506110709 -17 0.0 0.0 0.00 0.00 0.00 1010.4
20260506110610 -17 0.0 0.0 0.00 0.00 0.00 1010.4
20260506110606 -17 0.0 0.0 0.00 0.00 0.00 1010.3
20260506110507 -17 0.0 0.0 0.00 0.00 0.00 1010.4
20260506110346 -17 0.0 0.0 0.00 0.00 0.00 1010.3
20260506110209 -17 0.0 0.0 0.00 0.00 0.00 1010.4
20260506110112 -17 0.0 0.0 0.00 0.00 0.00 1010.3
20260506110107 -17 0.0 0.0 0.00 0.00 0.00 1010.4
20260506110006 -17 0.0 0.0 0.00 0.00 0.00 1010.3
20260506105900 -17 0.0 0.0 0.00 0.00 0.00 1010.1
20260506105711 -17 0.0 0.0 0.00 0.00 0.00 1010.3
20260506105608 -17 0.0 0.0 0.00 0.00 0.00 1010.4
20260506105508 -17 0.0 0.0 0.00 0.00 0.00 1010.3
20260506105407 -17 0.0 0.0 0.00 0.00 0.00 1010.4
20260506105307 -17 0.0 0.0 0.00 0.00 0.00 1010.3
20260506105207 -17 0.0 0.0 0.00 0.00 0.00 1010.3
20260506105108 -17 0.0 0.0 0.00 0.00 0.00 1010.4
20260506105006 -17 0.0 0.0 0.00 0.00 0.00 1010.3
20260506104905 -17 0.0 0.0 0.00 0.00 0.00 1010.4
20260506104738 -17 0.0 0.0 0.00 0.00 0.00 1010.4
20260506104611 -17 0.0 0.0 0.00 0.00 0.00 1010.5
20260506104607 -17 0.0 0.0 0.00 0.00 0.00 1010.4
20260506104509 -17 0.0 0.0 0.00 0.00 0.00 1010.4
20260506104408 -17 0.0 0.0 0.00 0.00 0.00 1010.3
20260506104307 -17 0.0 0.0 0.00 0.00 0.00 1010.3
20260506104209 -17 0.0 0.0 0.00 0.00 0.00 1010.3
20260506104106 -17 0.0 0.0 0.00 0.00 0.00 1010.3
20260506104005 -17 0.0 0.0 0.00 0.00 0.00 1010.4
20260506103904 -17 0.0 0.0 0.00 0.00 0.00 1010.4
20260506103710 -17 0.0 0.0 0.00 0.00 0.00 1010.4
20260506103605 -17 0.0 0.0 0.00 0.00 0.00 1010.4
20260506103505 -17 0.0 0.0 0.00 0.00 0.00 1010.4
20260506103405 -17 0.0 0.0 0.00 0.00 0.00 1010.4
20260506103304 -17 0.0 0.0 0.00 0.00 0.00 1010.5
20260506103204 -17 0.0 0.0 0.00 0.00 0.00 1010.4
20260506103103 -17 0.0 0.0 0.00 0.00 0.00 1010.4
20260506103004 -17 0.0 0.0 0.00 0.00 0.00 1010.4
20260506102836 -17 0.0 0.0 0.00 0.00 0.00 1010.4
20260506102706 -17 0.0 0.0 0.00 0.00 0.00 1010.4
20260506102604 -17 0.0 0.0 0.00 0.00 0.00 1010.4
20260506102507 -17 0.0 0.0 0.00 0.00 0.00 1010.4
20260506102408 -17 0.0 0.0 0.00 0.00 0.00 1010.5
20260506102305 -17 0.0 0.0 0.00 0.00 0.00 1010.3
20260506102200 -17 0.0 0.0 0.00 0.00 0.00 1010.3
20260506102102 -17 0.0 0.0 0.00 0.00 0.00 1010.3
20260506102009 -17 0.0 0.0 0.00 0.00 0.00 1010.3
20260506101908 -17 0.0 0.0 0.00 0.00 0.00 1010.3
20260506101756 -17 0.0 0.0 0.00 0.00 0.00 1010.1
20260506101602 -17 0.0 0.0 0.00 0.00 0.00 1010.1
20260506101506 -17 0.0 0.0 0.00 0.00 0.00 1010.1
20260506101358 -17 0.0 0.0 0.00 0.00 0.00 1010.1
20260506101231 -17 0.0 0.0 0.00 0.00 0.00 1010.1
20260506101105 -17 0.0 0.0 0.00 0.00 0.00 1010.3
20260506101037 -17 0.0 0.0 0.00 0.00 0.00 1010.3
20260506101006 -17 0.0 0.0 0.00 0.00 0.00 1010.3
20260506100904 -17 0.0 0.0 0.00 0.00 0.00 1010.3
20260506100744 -17 0.0 0.0 0.00 0.00 0.00 1010.1
20260506100608 -17 0.0 0.0 0.00 0.00 0.00 1010.1
20260506100513 -17 0.0 0.0 0.00 0.00 0.00 1010.1
20260506100506 -17 0.0 0.0 0.00 0.00 0.00 1010.3
20260506100408 -17 0.0 0.0 0.00 0.00 0.00 1010.3
20260506100306 -17 0.0 0.0 0.00 0.00 0.00 1010.1
20260506100207 -17 0.0 0.0 0.00 0.00 0.00 1010.1
20260506100108 -17 0.0 0.0 0.00 0.00 0.00 1010.1
20260506100012 -17 0.0 0.0 0.00 0.00 0.00 1010.1
20260506100008 -17 0.0 0.0 0.00 0.00 0.00 1010.0
20260506095907 -17 0.0 0.0 0.00 0.00 0.00 1010.0
20260506095729 -17 0.0 0.0 0.00 0.00 0.00 1010.1
20260506095607 -17 0.0 0.0 0.00 0.00 0.00 1010.1
20260506095510 -17 0.0 0.0 0.00 0.00 0.00 1010.1
20260506095506 -17 0.0 0.0 0.00 0.00 0.00 1010.0
20260506095359 -17 0.0 0.0 0.00 0.00 0.00 1010.0
20260506095242 -17 0.0 0.0 0.00 0.00 0.00 1010.0
20260506095107 -17 0.0 0.0 0.00 0.00 0.00 1010.0
20260506095011 -17 0.0 0.0 0.00 0.00 0.00 1010.0
20260506095007 -17 0.0 0.0 0.00 0.00 0.00 1010.1
20260506094857 -17 0.0 0.0 0.00 0.00 0.00 1010.0
20260506094756 -17 0.0 0.0 0.00 0.00 0.00 1010.0
20260506094606 -17 0.0 0.0 0.00 0.00 0.00 1010.0
20260506094511 -17 0.0 0.0 0.00 0.00 0.00 1010.0
20260506094507 -17 0.0 0.0 0.00 0.00 0.00 1010.1
20260506094312 -17 0.0 0.0 0.00 0.00 0.00 1010.0
20260506094210 -17 0.0 0.0 0.00 0.00 0.00 1010.0
20260506094107 -17 0.0 0.0 0.00 0.00 0.00 1010.1
20260506094008 -17 0.0 0.0 0.00 0.00 0.00 1010.0
20260506093908 -17 0.0 0.0 0.00 0.00 0.00 1009.9
20260506093807 -17 0.0 0.0 0.00 0.00 0.00 1010.0
20260506093708 -17 0.0 0.0 0.00 0.00 0.00 1010.0
20260506093606 -17 0.0 0.0 0.00 0.00 0.00 1010.1
20260506093508 -17 0.0 0.0 0.00 0.00 0.00 1010.1
20260506093409 -17 0.0 0.0 0.00 0.00 0.00 1010.0
20260506093300 -17 0.0 0.0 0.00 0.00 0.00 1010.1
20260506093152 -17 0.0 0.0 0.00 0.00 0.00 1010.1
20260506093015 -17 0.0 0.0 0.00 0.00 0.00 1010.1
20260506093010 -17 0.0 0.0 0.00 0.00 0.00 1010.0
20260506093004 -17 0.0 0.0 0.00 0.00 0.00 1010.3
20260506092908 -17 0.0 0.0 0.00 0.00 0.00 1010.0
20260506092804 -17 0.0 0.0 0.00 0.00 0.00 1010.1
20260506092619 -17 0.0 0.0 0.00 0.00 0.00 1010.3
20260506092613 -17 0.0 0.0 0.00 0.00 0.00 1010.1
20260506092609 -17 0.0 0.0 0.00 0.00 0.00 1010.3
20260506092407 -17 0.0 0.0 0.00 0.00 0.00 1010.3
20260506092308 -17 0.0 0.0 0.00 0.00 0.00 1010.1
20260506092204 -17 0.0 0.0 0.00 0.00 0.00 1010.3
20260506092113 -17 0.0 0.0 0.00 0.00 0.00 1010.3
20260506092106 -17 0.0 0.0 0.00 0.00 0.00 1010.3
20260506091835 -17 0.0 0.0 0.00 0.00 0.00 1010.3
20260506091709 -17 0.0 0.0 0.00 0.00 0.00 1010.1
20260506091608 -17 0.0 0.0 0.00 0.00 0.00 1010.1
20260506091506 -17 0.0 0.0 0.00 0.00 0.00 1010.3
20260506091448 -17 0.0 0.0 0.00 0.00 0.00 1010.3
20260506091408 -17 0.0 0.0 0.00 0.00 0.00 1010.3
20260506091304 -17 0.0 0.0 0.00 0.00 0.00 1010.3
20260506091203 -17 0.0 0.0 0.00 0.00 0.00 1010.3
20260506091103 -17 0.0 0.0 0.00 0.00 0.00 1010.3
20260506091003 -17 0.0 0.0 0.00 0.00 0.00 1010.3
20260506090908 -17 0.0 0.0 0.00 0.00 0.00 1010.4
20260506090902 -17 0.0 0.0 0.00 0.00 0.00 1010.3
20260506090713 -17 0.0 0.0 0.00 0.00 0.00 1010.3
20260506090614 -17 0.0 0.0 0.00 0.00 0.00 1010.3
20260506090519 -17 0.0 0.0 0.00 0.00 0.00 1010.3
20260506090512 -17 0.0 0.0 0.00 0.00 0.00 1010.4
20260506090307 -17 0.0 0.0 0.00 0.00 0.00 1010.4
20260506090209 -17 0.0 0.0 0.00 0.00 0.00 1010.3
20260506090106 -17 0.0 0.0 0.00 0.00 0.00 1010.3
20260506090006 -17 0.0 0.0 0.00 0.00 0.00 1010.4
20260506085912 -17 0.0 0.0 0.00 0.00 0.00 1010.5
20260506085907 -17 0.0 0.0 0.00 0.00 0.00 1010.4
20260506085839 -17 0.0 0.0 0.00 0.00 0.00 1010.4
20260506085710 -17 0.0 0.0 0.00 0.00 0.00 1010.4
20260506085606 -17 0.0 0.0 0.00 0.00 0.00 1010.4
20260506085514 -17 0.0 0.0 0.00 0.00 0.00 1010.5
20260506085354 -17 0.0 0.0 0.00 0.00 0.00 1010.4
20260506085211 -17 0.0 0.0 0.00 0.00 0.00 1010.6
20260506085106 -17 0.0 0.0 0.00 0.00 0.00 1010.6
20260506085007 -17 0.0 0.0 0.00 0.00 0.00 1010.5
20260506084907 -17 0.0 0.0 0.00 0.00 0.00 1010.5
20260506084808 -17 0.0 0.0 0.00 0.00 0.00 1010.6
20260506084704 -17 0.0 0.0 0.00 0.00 0.00 1010.5
20260506084604 -17 0.0 0.0 0.00 0.00 0.00 1010.5
20260506084406 -17 0.0 0.0 0.00 0.00 0.00 1010.5
20260506084308 -17 0.0 0.0 0.00 0.00 0.00 1010.6
20260506084208 -17 0.0 0.0 0.00 0.00 0.00 1010.5
20260506084105 -17 0.0 0.0 0.00 0.00 0.00 1010.6
20260506084006 -17 0.0 0.0 0.00 0.00 0.00 1010.6
20260506083850 -17 0.0 0.0 0.00 0.00 0.00 1010.6
20260506083752 -17 0.0 0.0 0.00 0.00 0.00 1010.6
20260506083606 -17 0.0 0.0 0.00 0.00 0.00 1010.6
20260506083505 -17 0.0 0.0 0.00 0.00 0.00 1010.6
20260506083404 -17 0.0 0.0 0.00 0.00 0.00 1010.5
20260506083308 -17 0.0 0.0 0.00 0.00 0.00 1010.5
20260506083210 -17 0.0 0.0 0.00 0.00 0.00 1010.6
20260506083107 -17 0.0 0.0 0.00 0.00 0.00 1010.7
20260506083007 -17 0.0 0.0 0.00 0.00 0.00 1010.6
20260506082808 -17 0.0 0.0 0.00 0.00 0.00 1010.6
20260506082711 -17 0.0 0.0 0.00 0.00 0.00 1010.6
20260506082608 -17 0.0 0.0 0.00 0.00 0.00 1010.7
20260506082508 -17 0.0 0.0 0.00 0.00 0.00 1010.6
20260506082408 -17 0.0 0.0 0.00 0.00 0.00 1010.7
20260506082315 -17 0.0 0.0 0.00 0.00 0.00 1010.7
20260506082306 -17 0.0 0.0 0.00 0.00 0.00 1010.6
20260506082208 -17 0.0 0.0 0.00 0.00 0.00 1010.6
20260506082051 -17 0.0 0.0 0.00 0.00 0.00 1010.7
20260506081914 -17 0.0 0.0 0.00 0.00 0.00 1010.7
20260506081800 -17 0.0 0.0 0.00 0.00 0.00 1010.7
20260506081610 -17 0.0 0.0 0.00 0.00 0.00 1010.7
20260506081509 -17 0.0 0.0 0.00 0.00 0.00 1010.6
20260506081407 -17 0.0 0.0 0.00 0.00 0.00 1010.6
20260506081308 -17 0.0 0.0 0.00 0.00 0.00 1010.6
20260506081207 -17 0.0 0.0 0.00 0.00 0.00 1010.7
20260506081107 -17 0.0 0.0 0.00 0.00 0.00 1010.6
20260506081005 -17 0.0 0.0 0.00 0.00 0.00 1010.5
20260506080903 -17 0.0 0.0 0.00 0.00 0.00 1010.5
20260506080808 -17 0.0 0.0 0.00 0.00 0.00 1010.5
20260506080734 -17 0.0 0.0 0.00 0.00 0.00 1010.6
20260506080605 -17 0.0 0.0 0.00 0.00 0.00 1010.6
20260506080505 -17 0.0 0.0 0.00 0.00 0.00 1010.6
20260506080405 -17 0.0 0.0 0.00 0.00 0.00 1010.6
20260506080308 -17 0.0 0.0 0.00 0.00 0.00 1010.6
20260506080304 -17 0.0 0.0 0.00 0.00 0.00 1010.7
20260506080200 -17 0.0 0.0 0.00 0.00 0.00 1010.7
20260506073500 15 179 6.4 20.9 0.00 0.00 0.00 100 1010.8
20260506073400 15 179 6.4 20.9 0.00 0.00 0.00 100 1010.8
20260506073301 15 179 6.4 20.9 0.00 0.00 0.00 100 1010.8
20260506073239 15 168 4.8 20.9 0.00 0.00 0.00 100 1010.8
20260506073230 15 179 6.4 20.9 0.00 0.00 0.00 100 1010.8
20260506073102 15 179 6.4 20.9 0.00 0.00 0.00 100 1010.8
20260506073001 15 179 6.4 20.9 0.00 0.00 0.00 100 1010.9
20260506072859 15 179 6.4 20.9 0.00 0.00 0.00 100 1010.8
20260506072757 15 179 6.4 20.9 0.00 0.00 0.00 100 1010.8
20260506072731 15 179 4.8 20.9 0.00 0.00 0.00 100 1010.8
20260506072553 14 179 4.8 14.5 0.00 0.00 0.00 100 1010.7
20260506072452 15 179 4.8 14.5 0.00 0.00 0.00 100 1010.7
20260506072351 15 179 4.8 14.5 0.00 0.00 0.00 100 1010.9
20260506072251 15 179 6.4 14.5 0.00 0.00 0.00 100 1010.8
20260506072150 15 179 4.8 14.5 0.00 0.00 0.00 100 1010.7
20260506072120 15 179 4.8 12.9 0.00 0.00 0.00 100 1010.7
20260506072049 15 179 4.8 12.9 0.00 0.00 0.00 100 1010.8
20260506071947 15 179 6.4 12.9 0.00 0.00 0.00 100 1010.9
20260506071849 15 179 6.4 12.9 0.00 0.00 0.00 100 1010.8
20260506071748 15 179 4.8 12.9 0.00 0.00 0.00 100 1010.8
20260506071620 15 179 4.8 12.9 0.00 0.00 0.00 100 1010.9
20260506071546 15 179 4.8 12.9 0.00 0.00 0.00 100 1010.8
20260506071446 15 179 4.8 12.9 0.00 0.00 0.00 100 1010.8
20260506071346 15 179 4.8 12.9 0.00 0.00 0.00 100 1010.8
20260506071245 15 179 6.4 24.1 0.00 0.00 0.00 100 1010.7
20260506071120 15 179 6.4 24.1 0.00 0.00 0.00 100 1010.8
20260506071046 15 179 6.4 24.1 0.00 0.00 0.00 100 1010.9
20260506070947 15 179 6.4 24.1 0.00 0.00 0.00 100 1010.8
20260506070846 15 179 6.4 24.1 0.00 0.00 0.00 100 1010.7
20260506070747 15 179 6.4 24.1 0.00 0.00 0.00 100 1010.8
20260506070625 15 179 4.8 22.5 0.00 0.00 0.00 100 1010.8
20260506070620 15 179 6.4 24.1 0.00 0.00 0.00 100 1010.7
20260506070547 15 179 6.4 24.1 0.00 0.00 0.00 100 1010.8
20260506070444 15 179 6.4 24.1 0.00 0.00 0.00 100 1010.8
20260506070345 15 179 4.8 24.1 0.00 0.00 0.00 100 1010.8
20260506070243 15 179 4.8 22.5 0.00 0.00 0.00 100 1010.8
20260506070229 15 179 4.8 22.5 0.00 0.00 0.00 100 1010.8
20260506062426 15 178 4.8 24.1 0.00 0.00 0.00 100 1010.7
20260506062327 15 177 4.8 24.1 0.00 0.00 0.00 100 1010.7
20260506062226 15 177 4.8 24.1 0.00 0.00 0.00 100 1010.6
20260506062119 15 177 4.8 24.1 0.00 0.00 0.00 100 1010.8
20260506062026 15 177 4.8 17.7 0.00 0.00 0.00 100 1010.7
20260506061926 15 176 4.8 17.7 0.00 0.00 0.00 100 1010.7
20260506061826 15 176 4.8 17.7 0.00 0.00 0.00 100 1010.8
20260506061725 15 176 4.8 17.7 0.00 0.00 0.00 100 1010.8
20260506061618 15 176 4.8 17.7 0.00 0.00 0.00 100 1010.8
20260506061525 15 176 4.8 17.7 0.00 0.00 0.00 100 1010.7
20260506061425 15 176 4.8 17.7 0.00 0.00 0.00 100 1010.7
20260506061322 15 176 6.4 17.7 0.00 0.00 0.00 100 1010.7
20260506061222 15 176 6.4 24.1 0.00 0.00 0.00 100 1010.8
20260506061117 15 176 6.4 24.1 0.00 0.00 0.00 100 1010.7
20260506061020 15 176 6.4 24.1 0.00 0.00 0.00 100 1010.7
20260506060921 15 176 6.4 24.1 0.00 0.00 0.00 100 1010.7
20260506060821 15 176 6.4 24.1 0.00 0.00 0.00 100 1010.7
20260506060720 15 176 4.8 24.1 0.00 0.00 0.00 100 1010.7
20260506060618 15 176 4.8 24.1 0.00 0.00 0.00 100 1010.7
20260506060520 15 176 4.8 24.1 0.00 0.00 0.00 100 1010.7
20260506060421 15 176 4.8 24.1 0.00 0.00 0.00 100 1010.7
20260506060318 15 176 4.8 24.1 0.00 0.00 0.00 100 1010.7
20260506060218 15 176 4.8 17.7 0.00 0.00 0.00 100 1010.8
20260506060119 15 176 4.8 16.1 0.00 0.00 0.00 100 1010.7
20260506051409 15 174 6.4 20.9 0.00 0.00 0.00 100 1010.9
20260506051306 15 174 6.4 20.9 0.00 0.00 0.00 100 1010.9
20260506051205 15 172 6.4 20.9 0.00 0.00 0.00 100 1010.9
20260506051118 15 172 4.8 20.9 0.00 0.00 0.00 100 1010.9
20260506051107 15 172 4.8 20.9 0.00 0.00 0.00 100 1011.0
20260506051006 15 172 4.8 20.9 0.00 0.00 0.00 100 1010.8
20260506050907 15 172 6.4 20.9 0.00 0.00 0.00 100 1010.8
20260506050807 15 172 6.4 20.9 0.00 0.00 0.00 100 1010.9
20260506050707 15 172 6.4 20.9 0.00 0.00 0.00 100 1010.8
20260506050621 15 170 4.8 19.3 0.00 0.00 0.00 100 1010.8
20260506050616 15 172 6.4 20.9 0.00 0.00 0.00 100 1010.8
20260506050606 15 171 6.4 19.3 0.00 0.00 0.00 100 1010.9
20260506050506 15 172 6.4 19.3 0.00 0.00 0.00 100 1010.8
20260506050407 15 171 6.4 19.3 0.00 0.00 0.00 100 1010.8
20260506050305 15 170 6.4 19.3 0.00 0.00 0.00 100 1010.8
20260506050229 15 170 4.8 19.3 0.00 0.00 0.00 100 1010.8
20260506050106 15 169 4.8 19.3 0.00 0.00 0.00 100 1010.6
20260506045114 15 167 6.4 20.9 0.00 0.00 0.00 100 1010.7
20260506045103 15 167 6.4 20.9 0.00 0.00 0.00 100 1010.9
20260506045003 15 167 6.4 20.9 0.00 0.00 0.00 100 1010.9
20260506044902 15 167 6.4 20.9 0.00 0.00 0.00 100 1010.7
20260506044802 15 167 6.4 20.9 0.00 0.00 0.00 100 1010.8
20260506044702 15 167 6.4 20.9 0.00 0.00 0.00 100 1010.8
20260506044603 15 165 6.4 20.9 0.00 0.00 0.00 100 1010.8
20260506044502 15 165 4.8 20.9 0.00 0.00 0.00 100 1010.8
20260506044402 15 162 4.8 20.9 0.00 0.00 0.00 100 1010.7
20260506044259 15 161 4.8 16.1 0.00 0.00 0.00 100 1010.8
20260506044201 15 160 4.8 16.1 0.00 0.00 0.00 100 1010.7
20260506044113 15 160 4.8 16.1 0.00 0.00 0.00 100 1010.7
20260506044059 15 160 4.8 16.1 0.00 0.00 0.00 100 1010.8
20260506043959 15 160 4.8 16.1 0.00 0.00 0.00 100 1010.8
20260506043858 15 159 4.8 16.1 0.00 0.00 0.00 100 1010.7
20260506043759 15 159 4.8 16.1 0.00 0.00 0.00 100 1010.8
20260506043658 15 159 4.8 16.1 0.00 0.00 0.00 100 1010.8
20260506043614 15 158 4.8 16.1 0.00 0.00 0.00 100 1010.8
20260506043557 15 158 4.8 16.1 0.00 0.00 0.00 100 1010.8
20260506043457 15 158 4.8 16.1 0.00 0.00 0.00 100 1010.8
20260506043358 15 158 4.8 17.7 0.00 0.00 0.00 100 1010.8
20260506043257 15 158 6.4 17.7 0.00 0.00 0.00 100 1010.8
20260506043159 15 158 4.8 17.7 0.00 0.00 0.00 100 1011.0
20260506043115 15 158 4.8 17.7 0.00 0.00 0.00 100 1011.0
20260506043057 15 158 6.4 17.7 0.00 0.00 0.00 100 1010.9
20260506042959 15 157 4.8 17.7 0.00 0.00 0.00 100 1010.9
20260506042856 15 157 6.4 17.7 0.00 0.00 0.00 100 1011.0
20260506042756 15 157 6.4 17.7 0.00 0.00 0.00 100 1011.0
20260506042657 15 156 6.4 17.7 0.00 0.00 0.00 100 1011.0
20260506042615 15 156 6.4 17.7 0.00 0.00 0.00 100 1011.0
20260506042556 15 156 6.4 17.7 0.00 0.00 0.00 100 1010.9
20260506042456 15 156 6.4 17.7 0.00 0.00 0.00 100 1010.9
20260506042356 15 155 6.4 16.1 0.00 0.00 0.00 100 1011.0
20260506042256 15 155 6.4 16.1 0.00 0.00 0.00 100 1011.0
20260506042157 15 155 6.4 16.1 0.00 0.00 0.00 100 1010.9
20260506042114 15 155 6.4 16.1 0.00 0.00 0.00 100 1010.9
20260506042055 15 155 6.4 16.1 0.00 0.00 0.00 100 1011.0
20260506041954 15 155 6.4 22.5 0.00 0.00 0.00 100 1011.1
20260506041853 15 155 6.4 22.5 0.00 0.00 0.00 100 1010.9
20260506041753 15 153 6.4 22.5 0.00 0.00 0.00 100 1011.1
20260506041653 15 153 6.4 22.5 0.00 0.00 0.00 100 1010.9
20260506041615 15 153 6.4 22.5 0.00 0.00 0.00 100 1010.9
20260506041550 15 153 6.4 22.5 0.00 0.00 0.00 100 1010.8
20260506041451 15 151 6.4 22.5 0.00 0.00 0.00 100 1010.9
20260506041350 15 150 6.4 22.5 0.00 0.00 0.00 100 1010.9
20260506041248 15 149 6.4 25.7 0.00 0.00 0.00 100 1010.8
20260506041148 15 148 6.4 25.7 0.00 0.00 0.00 100 1010.9
20260506041114 15 147 6.4 25.7 0.00 0.00 0.00 100 1010.9
20260506041046 15 147 6.4 25.7 0.00 0.00 0.00 100 1010.9
20260506040944 15 146 6.4 25.7 0.00 0.00 0.00 100 1010.9
20260506040843 15 146 6.4 25.7 0.00 0.00 0.00 100 1010.7
20260506040742 15 146 4.8 25.7 0.00 0.00 0.00 100 1010.9
20260506040641 15 143 4.8 25.7 0.00 0.00 0.00 100 1010.9
20260506040613 15 141 4.8 25.7 0.00 0.00 0.00 100 1010.9
20260506040541 15 141 4.8 25.7 0.00 0.00 0.00 100 1010.8
20260506040440 15 139 4.8 25.7 0.00 0.00 0.00 100 1010.8
20260506040339 15 136 4.8 25.7 0.00 0.00 0.00 100 1010.8
20260506040238 15 135 4.8 16.1 0.00 0.00 0.00 100 1010.8
20260506040115 15 181 4.8 16.1 0.00 0.00 0.00 100 1010.9
20260506040035 15 181 4.8 16.1 0.00 0.00 0.00 100 1010.8
20260506035936 15 181 4.8 16.1 0.00 0.00 0.00 100 1011.0
20260506035837 15 182 6.4 20.9 0.00 0.00 0.00 100 1010.9
20260506035737 15 181 4.8 20.9 0.00 0.00 0.00 100 1010.8
20260506035635 15 182 4.8 20.9 0.00 0.00 0.00 100 1011.0
20260506035614 15 181 4.8 20.9 0.00 0.00 0.00 100 1011.0
20260506035537 15 181 4.8 20.9 0.00 0.00 0.00 100 1010.9
20260506035437 15 181 4.8 20.9 0.00 0.00 0.00 100 1011.0
20260506035334 15 181 4.8 20.9 0.00 0.00 0.00 100 1010.9
20260506035233 15 182 4.8 20.9 0.00 0.00 0.00 100 1010.8
20260506035132 15 181 4.8 20.9 0.00 0.00 0.00 100 1010.9
20260506035119 15 181 6.4 19.3 0.00 0.00 0.00 100 1010.9
20260506035114 15 182 4.8 20.9 0.00 0.00 0.00 100 1010.9
20260506035032 15 183 4.8 20.9 0.00 0.00 0.00 100 1011.0
20260506034932 15 182 6.4 20.9 0.00 0.00 0.00 100 1010.9
20260506034833 15 182 4.8 19.3 0.00 0.00 0.00 100 1011.0
20260506034734 15 181 6.4 19.3 0.00 0.00 0.00 100 1010.8
20260506034721 15 181 6.4 19.3 0.00 0.00 0.00 100 1010.9
20260506034533 15 181 6.4 19.3 0.00 0.00 0.00 100 1010.8
20260506034432 15 181 6.4 19.3 0.00 0.00 0.00 100 1010.8
20260506034331 15 181 6.4 19.3 0.00 0.00 0.00 100 1010.7
20260506034228 15 182 6.4 19.3 0.00 0.00 0.00 100 1010.9
20260506034114 15 181 6.4 19.3 0.00 0.00 0.00 100 1010.9
20260506034028 15 182 6.4 19.3 0.00 0.00 0.00 100 1010.8
20260506033929 15 182 6.4 17.7 0.00 0.00 0.00 100 1010.9
20260506033827 15 181 6.4 17.7 0.00 0.00 0.00 100 1010.8
20260506033727 15 182 6.4 17.7 0.00 0.00 0.00 100 1010.8
20260506033615 15 182 4.8 17.7 0.00 0.00 0.00 100 1010.8
20260506033525 15 182 4.8 17.7 0.00 0.00 0.00 100 1011.0
20260506033425 15 182 4.8 17.7 0.00 0.00 0.00 100 1010.8
20260506033323 15 182 4.8 17.7 0.00 0.00 0.00 100 1010.9
20260506033221 15 183 6.4 17.7 0.00 0.00 0.00 100 1010.9
20260506033114 15 183 6.4 17.7 0.00 0.00 0.00 100 1010.9
20260506033022 15 183 6.4 22.5 0.00 0.00 0.00 100 1011.0
20260506032923 15 183 6.4 22.5 0.00 0.00 0.00 100 1010.7
20260506032823 15 183 6.4 22.5 0.00 0.00 0.00 100 1010.9
20260506032722 15 183 6.4 22.5 0.00 0.00 0.00 100 1010.8
20260506032623 15 182 6.4 22.5 0.00 0.00 0.00 100 1011.0
20260506032619 15 182 4.8 22.5 0.00 0.00 0.00 3 1010.8
20260506032613 15 183 6.4 22.5 0.00 0.00 0.00 100 1011.0
20260506032520 15 183 6.4 22.5 0.00 0.00 0.00 100 1010.9
20260506032421 15 183 6.4 22.5 0.00 0.00 0.00 100 1010.8
20260506032320 15 183 6.4 22.5 0.00 0.00 0.00 1 1010.9
20260506032234 15 182 6.4 22.5 0.00 0.00 0.00 1 1011.0
20260506032220 15 182 4.8 22.5 0.00 0.00 0.00 3 1010.8
20260506032019 15 182 4.8 17.7 0.00 0.00 0.00 4 1010.8
20260506031917 15 182 6.4 27.4 0.00 0.00 0.00 5 1010.9
20260506031816 15 183 4.8 27.4 0.00 0.00 0.00 5 1010.8
20260506031715 15 182 4.8 27.4 0.00 0.00 0.00 5 1010.7
20260506031615 15 182 4.8 27.4 0.00 0.00 0.00 6 1010.8
20260506031513 15 182 4.8 27.4 0.00 0.00 0.00 6 1010.9
20260506031414 15 182 4.8 27.4 0.00 0.00 0.00 7 1010.9
20260506031316 15 182 4.8 27.4 0.00 0.00 0.00 7 1010.8
20260506031214 15 182 4.8 27.4 0.00 0.00 0.00 7 1010.8
20260506031114 15 183 6.4 27.4 0.00 0.00 0.00 7 1010.7
20260506031012 15 183 4.8 27.4 0.00 0.00 0.00 8 1010.8
20260506030913 15 184 4.8 19.3 0.00 0.00 0.00 9 1010.9
20260506030812 15 184 6.4 22.5 0.00 0.00 0.00 9 1010.8
20260506030714 15 184 6.4 22.5 0.00 0.00 0.00 10 1010.9
20260506030612 15 184 6.4 22.5 0.00 0.00 0.00 10 1011.0
20260506030512 15 184 6.4 22.5 0.00 0.00 0.00 10 1010.9
20260506030411 15 184 6.4 22.5 0.00 0.00 0.00 11 1011.1
20260506030310 15 183 6.4 22.5 0.00 0.00 0.00 11 1011.0
20260506030210 15 183 6.4 22.5 0.00 0.00 0.00 12 1010.9
20260506030110 15 183 6.4 22.5 0.00 0.00 0.00 12 1010.7
20260506030010 15 183 6.4 22.5 0.00 0.00 0.00 13 1010.9
20260506025911 15 183 6.4 22.5 0.00 0.00 0.00 13 1010.9
20260506025809 15 183 6.4 19.3 0.00 0.00 0.00 14 1011.0
20260506025709 15 183 6.4 19.3 0.00 0.00 0.00 15 1010.9
20260506025610 15 182 6.4 19.3 0.00 0.00 0.00 16 1010.8
20260506025511 15 182 6.4 19.3 0.00 0.00 0.00 17 1011.1
20260506025410 15 182 6.4 19.3 0.00 0.00 0.00 17 1011.0
20260506025310 15 183 6.4 19.3 0.00 0.00 0.00 17 1010.9
20260506025209 15 182 6.4 19.3 0.00 0.00 0.00 18 1011.0
20260506025120 16 183 6.4 17.7 0.00 0.00 0.00 24 1010.9
20260506025113 15 183 6.4 19.3 0.00 0.00 0.00 18 1011.0
20260506025109 15 183 6.4 19.3 0.00 0.00 0.00 18 1010.9
20260506025007 15 183 6.4 17.7 0.00 0.00 0.00 19 1010.9
20260506024909 16 183 4.8 16.1 0.00 0.00 0.00 20 1010.9
20260506024809 16 183 4.8 17.7 0.00 0.00 0.00 22 1011.0
20260506024732 16 183 6.4 17.7 0.00 0.00 0.00 22 1010.8
20260506024614 16 182 4.8 17.7 0.00 0.00 0.00 22 1010.8
20260506024608 16 182 4.8 17.7 0.00 0.00 0.00 22 1010.9
20260506024509 16 182 6.4 17.7 0.00 0.00 0.00 23 1010.8
20260506024408 16 182 6.4 17.7 0.00 0.00 0.00 23 1010.8
20260506024308 16 183 6.4 17.7 0.00 0.00 0.00 23 1010.8
20260506024227 16 183 6.4 17.7 0.00 0.00 0.00 23 1010.9
20260506024107 16 183 6.4 17.7 0.00 0.00 0.00 24 1010.9
20260506024005 16 183 6.4 17.7 0.00 0.00 0.00 24 1010.9
20260506023906 16 182 6.4 17.7 0.00 0.00 0.00 25 1010.9
20260506023806 16 183 6.4 17.7 0.00 0.00 0.00 26 1010.8
20260506023706 16 182 6.4 17.7 0.00 0.00 0.00 27 1010.8
20260506023606 16 182 6.4 17.7 0.00 0.00 0.00 27 1010.8
20260506023506 16 182 4.8 17.7 0.00 0.00 0.00 27 1010.7
20260506023406 16 182 4.8 17.7 0.00 0.00 0.00 28 1010.8
20260506023306 16 182 6.4 16.1 0.00 0.00 0.00 29 1010.8
20260506023206 16 182 4.8 16.1 0.00 0.00 0.00 30 1010.8
20260506023105 16 182 4.8 16.1 0.00 0.00 0.00 30 1010.8
20260506023006 16 182 4.8 16.1 0.00 0.00 0.00 31 1010.8
20260506022905 16 182 4.8 17.7 0.00 0.00 0.00 31 1010.7
20260506022805 16 182 4.8 17.7 0.00 0.00 0.00 32 1010.7
20260506022704 16 182 4.8 17.7 0.00 0.00 0.00 33 1010.7
20260506022603 16 182 4.8 17.7 0.00 0.00 0.00 33 1010.7
20260506022503 16 182 4.8 17.7 0.00 0.00 0.00 33 1010.8
20260506022404 16 182 4.8 17.7 0.00 0.00 0.00 33 1010.8
20260506022306 16 182 4.8 17.7 0.00 0.00 0.00 33 1010.9
20260506022204 16 182 4.8 17.7 0.00 0.00 0.00 33 1010.7
20260506022110 16 182 4.8 17.7 0.00 0.00 0.00 33 1010.7
20260506022102 16 182 4.8 17.7 0.00 0.00 0.00 33 1010.8
20260506022001 16 182 4.8 17.7 0.00 0.00 0.00 33 1010.8
20260506021900 16 183 4.8 22.5 0.00 0.00 0.00 33 1010.8
20260506021800 16 182 4.8 22.5 0.00 0.00 0.00 33 1010.7
20260506021700 16 182 4.8 22.5 0.00 0.00 0.00 33 1010.8
20260506021609 16 182 4.8 22.5 0.00 0.00 0.00 33 1010.8
20260506021558 16 183 4.8 22.5 0.00 0.00 0.00 33 1011.0
20260506021457 16 183 4.8 22.5 0.00 0.00 0.00 33 1010.8
20260506021357 16 183 6.4 22.5 0.00 0.00 0.00 33 1010.9
20260506021256 16 182 6.4 22.5 0.00 0.00 0.00 33 1010.8
20260506021157 16 183 6.4 22.5 0.00 0.00 0.00 32 1010.8
20260506021111 16 183 6.4 22.5 0.00 0.00 0.00 32 1010.8
20260506021058 16 183 6.4 22.5 0.00 0.00 0.00 32 1010.8
20260506020957 16 183 6.4 22.5 0.00 0.00 0.00 32 1010.8
20260506020857 16 184 6.4 19.3 0.00 0.00 0.00 32 1010.8
20260506020756 16 183 6.4 19.3 0.00 0.00 0.00 33 1010.8
20260506020658 16 183 6.4 19.3 0.00 0.00 0.00 32 1010.8
20260506020607 16 183 6.4 19.3 0.00 0.00 0.00 32 1010.8
20260506020556 16 183 6.4 19.3 0.00 0.00 0.00 32 1010.8
20260506020457 16 183 6.4 19.3 0.00 0.00 0.00 32 1010.8
20260506020356 16 183 6.4 19.3 0.00 0.00 0.00 32 1010.8
20260506020254 16 184 4.8 19.3 0.00 0.00 0.00 32 1010.8
20260506020155 16 184 4.8 19.3 0.00 0.00 0.00 31 1010.8
20260506020108 16 184 4.8 19.3 0.00 0.00 0.00 31 1010.8
20260506020054 16 184 4.8 19.3 0.00 0.00 0.00 31 1010.8
20260506015953 16 184 4.8 19.3 0.00 0.00 0.00 31 1011.0
20260506015855 16 184 4.8 19.3 0.00 0.00 0.00 30 1010.9
20260506015752 16 183 4.8 19.3 0.00 0.00 0.00 30 1010.8
20260506015652 16 184 4.8 19.3 0.00 0.00 0.00 30 1010.9
20260506015609 16 183 4.8 16.1 0.00 0.00 0.00 31 1010.9
20260506015551 16 183 4.8 16.1 0.00 0.00 0.00 31 1010.9
20260506015451 16 183 4.8 16.1 0.00 0.00 0.00 31 1010.9
20260506015351 16 183 4.8 12.9 0.00 0.00 0.00 31 1010.9
20260506015248 16 183 4.8 12.9 0.00 0.00 0.00 32 1010.9
20260506015148 16 183 4.8 20.9 0.00 0.00 0.00 32 1011.0
20260506015107 16 183 4.8 20.9 0.00 0.00 0.00 32 1011.0
20260506015048 16 183 4.8 20.9 0.00 0.00 0.00 32 1010.8
20260506014949 16 183 4.8 20.9 0.00 0.00 0.00 32 1010.9
20260506014847 16 183 4.8 20.9 0.00 0.00 0.00 33 1010.9
20260506014743 16 183 4.8 20.9 0.00 0.00 0.00 33 1010.9
20260506014644 16 183 4.8 20.9 0.00 0.00 0.00 33 1010.8
20260506014613 16 184 4.8 17.7 0.00 0.00 0.00 33 1010.5
20260506014609 16 183 4.8 20.9 0.00 0.00 0.00 33 1010.8
20260506014545 16 183 4.8 20.9 0.00 0.00 0.00 33 1010.9
20260506014444 16 183 4.8 20.9 0.00 0.00 0.00 33 1010.9
20260506014341 16 183 4.8 20.9 0.00 0.00 0.00 33 1010.9
20260506014241 16 184 4.8 20.9 0.00 0.00 0.00 33 1010.7
20260506014217 16 184 4.8 17.7 0.00 0.00 0.00 33 1010.5
20260506014040 16 184 4.8 17.7 0.00 0.00 0.00 33 1010.8
20260506013941 16 184 4.8 17.7 0.00 0.00 0.00 33 1010.7
20260506013838 16 184 4.8 17.7 0.00 0.00 0.00 33 1010.7
20260506013736 16 184 4.8 17.7 0.00 0.00 0.00 33 1010.5
20260506013635 16 184 6.4 17.7 0.00 0.00 0.00 33 1010.6
20260506013609 16 184 6.4 17.7 0.00 0.00 0.00 33 1010.4
20260506013535 16 184 6.4 17.7 0.00 0.00 0.00 33 1010.4
20260506013434 16 184 6.4 17.7 0.00 0.00 0.00 34 1010.5
20260506013333 16 184 6.4 19.3 0.00 0.00 0.00 34 1010.5
20260506013231 16 184 6.4 19.3 0.00 0.00 0.00 34 1010.6
20260506013131 16 184 6.4 19.3 0.00 0.00 0.00 34 1010.5
20260506013107 16 184 6.4 19.3 0.00 0.00 0.00 34 1010.4
20260506013030 16 184 6.4 19.3 0.00 0.00 0.00 34 1010.4
20260506012932 16 184 6.4 19.3 0.00 0.00 0.00 34 1010.5
20260506012828 16 184 6.4 19.3 0.00 0.00 0.00 35 1010.5
20260506012728 16 184 6.4 19.3 0.00 0.00 0.00 35 1010.5
20260506012608 16 184 6.4 19.3 0.00 0.00 0.00 35 1010.5
20260506012526 16 184 6.4 19.3 0.00 0.00 0.00 35 1010.5
20260506012427 16 184 6.4 19.3 0.00 0.00 0.00 36 1010.5
20260506012326 16 184 6.4 16.1 0.00 0.00 0.00 35 1010.4
20260506012223 16 184 6.4 17.7 0.00 0.00 0.00 36 1010.4
20260506012123 16 184 4.8 17.7 0.00 0.00 0.00 36 1010.3
20260506012109 16 184 4.8 17.7 0.00 0.00 0.00 36 1010.4
20260506012022 16 183 4.8 17.7 0.00 0.00 0.00 37 1010.4
20260506011922 16 183 4.8 17.7 0.00 0.00 0.00 37 1010.4
20260506011819 16 183 4.8 17.7 0.00 0.00 0.00 37 1010.4
20260506011721 16 183 4.8 17.7 0.00 0.00 0.00 38 1010.4
20260506011620 16 183 6.4 17.7 0.00 0.00 0.00 38 1010.5
20260506011607 16 183 6.4 17.7 0.00 0.00 0.00 38 1010.4
20260506011519 16 183 6.4 17.7 0.00 0.00 0.00 39 1010.4
20260506011419 16 183 6.4 17.7 0.00 0.00 0.00 39 1010.4
20260506011317 16 183 6.4 17.7 0.00 0.00 0.00 39 1010.4
20260506011218 16 182 6.4 17.7 0.00 0.00 0.00 40 1010.1
20260506011118 16 182 6.4 17.7 0.00 0.00 0.00 40 1010.3
20260506011107 16 183 6.4 17.7 0.00 0.00 0.00 40 1010.3
20260506011018 16 183 6.4 17.7 0.00 0.00 0.00 40 1010.3
20260506010915 16 183 6.4 17.7 0.00 0.00 0.00 40 1010.1
20260506010816 16 182 6.4 17.7 0.00 0.00 0.00 40 1010.3
20260506010715 16 182 6.4 17.7 0.00 0.00 0.00 40 1010.3
20260506010616 16 182 6.4 17.7 0.00 0.00 0.00 40 1010.3
20260506010608 16 182 6.4 17.7 0.00 0.00 0.00 41 1010.3
20260506010517 16 182 6.4 17.7 0.00 0.00 0.00 41 1010.3
20260506010416 16 182 6.4 17.7 0.00 0.00 0.00 41 1010.3
20260506010316 16 182 6.4 17.7 0.00 0.00 0.00 41 1010.1
20260506010216 16 183 6.4 12.9 0.00 0.00 0.00 41 1010.0
20260506010107 16 182 6.4 14.5 0.00 0.00 0.00 42 1010.1
20260506010014 16 182 6.4 14.5 0.00 0.00 0.00 42 1010.0
20260506005913 16 182 6.4 14.5 0.00 0.00 0.00 42 1010.1
20260506005812 16 182 6.4 14.5 0.00 0.00 0.00 42 1010.3
20260506005712 16 182 6.4 14.5 0.00 0.00 0.00 43 1010.0
20260506005618 16 182 6.4 14.5 0.00 0.00 0.00 43 1010.0
20260506005609 16 182 6.4 14.5 0.00 0.00 0.00 43 1010.0
20260506005509 16 182 6.4 14.5 0.00 0.00 0.00 43 1010.1
20260506005411 16 182 6.4 14.5 0.00 0.00 0.00 43 1010.1
20260506005310 16 182 6.4 14.5 0.00 0.00 0.00 43 1010.1
20260506005227 16 182 6.4 14.5 0.00 0.00 0.00 43 1010.1
20260506005213 16 182 6.4 14.5 0.00 0.00 0.00 43 1010.0
20260506005009 16 182 6.4 14.5 0.00 0.00 0.00 43 1009.9
20260506004909 16 182 6.4 14.5 0.00 0.00 0.00 43 1009.9
20260506004808 16 182 6.4 17.7 0.00 0.00 0.00 43 1009.9
20260506004708 16 182 6.4 22.5 0.00 0.00 0.00 43 1009.9
20260506004607 16 182 6.4 22.5 0.00 0.00 0.00 43 1009.9
20260506004509 16 182 6.4 22.5 0.00 0.00 0.00 43 1009.9
20260506004406 16 182 6.4 22.5 0.00 0.00 0.00 43 1009.9
20260506004306 16 182 6.4 22.5 0.00 0.00 0.00 43 1009.9
20260506004205 16 182 6.4 22.5 0.00 0.00 0.00 43 1010.0
20260506004118 16 182 6.4 17.7 0.00 0.00 0.00 42 1009.9
20260506004107 16 182 6.4 22.5 0.00 0.00 0.00 43 1009.9
20260506004006 16 182 6.4 22.5 0.00 0.00 0.00 42 1009.9
20260506003907 16 183 6.4 22.5 0.00 0.00 0.00 42 1009.8
20260506003806 16 183 6.4 22.5 0.00 0.00 0.00 42 1009.8
20260506003726 16 182 6.4 14.5 0.00 0.00 0.00 42 1009.8
20260506003710 16 182 6.4 17.7 0.00 0.00 0.00 42 1009.9
20260506003505 16 182 6.4 17.7 0.00 0.00 0.00 42 1009.7
20260506003405 16 182 6.4 20.9 0.00 0.00 0.00 42 1009.7
20260506003303 16 182 6.4 20.9 0.00 0.00 0.00 42 1009.7
20260506003203 16 182 6.4 20.9 0.00 0.00 0.00 42 1009.8
20260506003101 16 182 6.4 20.9 0.00 0.00 0.00 42 1009.7
20260506003002 16 182 6.4 20.9 0.00 0.00 0.00 42 1009.6
20260506002901 16 183 8.0 20.9 0.00 0.00 0.00 43 1009.6
20260506002803 16 183 8.0 20.9 0.00 0.00 0.00 43 1009.6
20260506002702 16 182 8.0 20.9 0.00 0.00 0.00 43 1009.6
20260506002606 16 183 8.0 20.9 0.00 0.00 0.00 43 1009.4
20260506002600 16 182 8.0 20.9 0.00 0.00 0.00 43 1009.4
20260506002500 16 183 6.4 20.9 0.00 0.00 0.00 43 1009.4
20260506002359 16 183 6.4 19.3 0.00 0.00 0.00 42 1009.4
20260506002258 16 181 6.4 19.3 0.00 0.00 0.00 42 1009.3
20260506002158 16 181 6.4 19.3 0.00 0.00 0.00 43 1009.5
20260506002106 16 181 6.4 19.3 0.00 0.00 0.00 42 1009.4
20260506002059 16 181 6.4 19.3 0.00 0.00 0.00 42 1009.4
20260506001956 16 180 6.4 19.3 0.00 0.00 0.00 42 1009.5
20260506001856 16 181 6.4 19.3 0.00 0.00 0.00 42 1009.4
20260506001756 16 181 6.4 19.3 0.00 0.00 0.00 42 1009.4
20260506001656 16 181 6.4 19.3 0.00 0.00 0.00 42 1009.5
20260506001606 16 181 6.4 19.3 0.00 0.00 0.00 42 1009.5
20260506001556 16 181 6.4 19.3 0.00 0.00 0.00 42 1009.5
20260506001454 16 181 6.4 19.3 0.00 0.00 0.00 42 1009.5
20260506001354 16 181 6.4 19.3 0.00 0.00 0.00 42 1009.3
20260506001251 16 181 6.4 19.3 0.00 0.00 0.00 42 1009.2
20260506001151 16 181 4.8 19.3 0.00 0.00 0.00 42 1009.4
20260506001107 16 181 4.8 16.1 0.00 0.00 0.00 42 1009.3
20260506001053 16 181 4.8 16.1 0.00 0.00 0.00 42 1009.3
20260506000951 16 181 6.4 16.1 0.00 0.00 0.00 42 1009.3
20260506000851 16 181 6.4 16.1 0.00 0.00 0.00 41 1009.2
20260506000751 16 181 6.4 16.1 0.00 0.00 0.00 41 1009.2
20260506000652 16 181 6.4 16.1 0.00 0.00 0.00 41 1009.1
20260506000607 16 181 6.4 16.1 0.00 0.00 0.00 41 1009.3
20260506000549 16 181 4.8 16.1 0.00 0.00 0.00 41 1009.3
20260506000450 16 181 4.8 16.1 0.00 0.00 0.00 41 1009.1
20260506000348 16 181 4.8 20.9 0.00 0.00 0.00 39 1008.9
20260506000248 16 181 4.8 20.9 0.00 0.00 0.00 39 1009.2
20260506000147 16 181 4.8 20.9 0.00 0.00 0.00 39 1009.2
20260506000107 16 181 4.8 20.9 0.00 0.00 0.00 39 1009.1
20260506000047 16 181 4.8 20.9 0.00 0.00 0.00 39 1009.1
20260505235949 16 181 4.8 20.9 0.00 0.00 0.00 38 1009.1
20260505235847 16 181 4.8 20.9 0.00 0.00 0.00 38 1009.1
20260505235746 16 180 4.8 20.9 0.00 0.00 0.00 37 1009.2
20260505235646 16 181 4.8 20.9 0.00 0.00 0.00 38 1009.2
20260505235606 16 180 4.8 20.9 0.00 0.00 0.00 38 1009.2
20260505235547 16 180 4.8 20.9 0.00 0.00 0.00 38 1009.2
20260505235447 16 181 4.8 20.9 0.00 0.00 0.00 38 1009.4
20260505235345 16 181 4.8 12.9 0.00 0.00 0.00 38 1009.3
20260505235246 16 181 4.8 12.9 0.00 0.00 0.00 38 1009.3
20260505235147 16 180 4.8 12.9 0.00 0.00 0.00 38 1009.3
20260505235107 16 181 4.8 17.7 0.00 0.00 0.00 38 1009.3
20260505235043 16 181 4.8 17.7 0.00 0.00 0.00 38 1009.3
20260505234943 16 181 4.8 17.7 0.00 0.00 0.00 38 1009.4
20260505234845 16 181 4.8 17.7 0.00 0.00 0.00 39 1009.4
20260505234744 16 180 4.8 17.7 0.00 0.00 0.00 39 1009.3
20260505234645 16 180 4.8 17.7 0.00 0.00 0.00 39 1009.2
20260505234606 16 180 4.8 17.7 0.00 0.00 0.00 39 1009.3
20260505234542 16 180 4.8 17.7 0.00 0.00 0.00 39 1009.3
20260505234443 16 180 4.8 17.7 0.00 0.00 0.00 39 1009.3
20260505234340 16 180 4.8 17.7 0.00 0.00 0.00 40 1009.2
20260505234240 16 181 4.8 17.7 0.00 0.00 0.00 40 1009.2
20260505234140 16 180 4.8 12.9 0.00 0.00 0.00 40 1009.2
20260505234106 16 181 4.8 12.9 0.00 0.00 0.00 40 1009.1
20260505234039 16 180 4.8 12.9 0.00 0.00 0.00 40 1009.1
20260505233937 16 180 4.8 12.9 0.00 0.00 0.00 40 1009.2
20260505233837 16 181 4.8 12.9 0.00 0.00 0.00 40 1009.1
20260505233737 16 181 4.8 12.9 0.00 0.00 0.00 41 1009.2
20260505233636 16 181 4.8 11.3 0.00 0.00 0.00 41 1009.2
20260505233605 16 181 3.2 11.3 0.00 0.00 0.00 41 1009.1
20260505233535 16 181 3.2 11.3 0.00 0.00 0.00 41 1009.1
20260505233432 16 180 3.2 11.3 0.00 0.00 0.00 41 1009.0
20260505233333 16 181 3.2 11.3 0.00 0.00 0.00 41 1009.1
20260505233233 16 181 3.2 11.3 0.00 0.00 0.00 42 1009.1
20260505233107 16 180 3.2 11.3 0.00 0.00 0.00 42 1009.0
20260505233031 16 180 3.2 11.3 0.00 0.00 0.00 42 1009.0
20260505232930 16 180 4.8 16.1 0.00 0.00 0.00 43 1009.1
20260505232830 16 180 4.8 16.1 0.00 0.00 0.00 43 1009.0
20260505232731 16 180 4.8 16.1 0.00 0.00 0.00 43 1009.0
20260505232629 16 180 4.8 16.1 0.00 0.00 0.00 43 1008.9
20260505232606 16 180 4.8 16.1 0.00 0.00 0.00 43 1009.0
20260505232531 16 180 4.8 16.1 0.00 0.00 0.00 43 1009.0
20260505232429 16 180 4.8 16.1 0.00 0.00 0.00 44 1009.0
20260505232329 16 180 4.8 16.1 0.00 0.00 0.00 45 1009.1
20260505232228 16 180 4.8 16.1 0.00 0.00 0.00 45 1009.0
20260505232126 16 180 4.8 16.1 0.00 0.00 0.00 45 1009.1
20260505232111 16 180 4.8 14.5 0.00 0.00 0.00 45 1009.1
20260505232105 16 180 4.8 16.1 0.00 0.00 0.00 44 1009.0
20260505232026 16 180 4.8 16.1 0.00 0.00 0.00 44 1009.0
20260505231927 16 179 4.8 14.5 0.00 0.00 0.00 44 1009.0
20260505231825 16 180 4.8 14.5 0.00 0.00 0.00 44 1009.0
20260505231729 16 180 4.8 14.5 0.00 0.00 0.00 45 1008.9
20260505231713 16 179 4.8 14.5 0.00 0.00 0.00 45 1009.1
20260505231521 16 179 4.8 14.5 0.00 0.00 0.00 45 1009.1
20260505231419 16 179 4.8 14.5 0.00 0.00 0.00 45 1009.0
20260505231321 16 180 4.8 14.5 0.00 0.00 0.00 45 1009.0
20260505231217 16 180 4.8 14.5 0.00 0.00 0.00 45 1009.0
20260505231118 16 180 4.8 14.5 0.00 0.00 0.00 45 1008.9
20260505231110 16 181 4.8 14.5 0.00 0.00 0.00 45 1008.9
20260505231105 17 181 6.4 20.9 0.00 0.00 0.00 49 1008.9
20260505231017 16 181 4.8 16.1 0.00 0.00 0.00 46 1008.9
20260505230919 16 181 4.8 20.9 0.00 0.00 0.00 46 1009.0
20260505230818 16 181 4.8 20.9 0.00 0.00 0.00 46 1009.0
20260505230733 16 180 4.8 20.9 0.00 0.00 0.00 47 1009.0
20260505230716 16 180 4.8 20.9 0.00 0.00 0.00 48 1008.9
20260505230711 16 181 4.8 20.9 0.00 0.00 0.00 48 1009.1
20260505230512 16 181 4.8 20.9 0.00 0.00 0.00 48 1009.1
20260505230411 16 181 4.8 20.9 0.00 0.00 0.00 48 1009.0
20260505230312 16 181 6.4 20.9 0.00 0.00 0.00 48 1009.0
20260505230230 17 180 6.4 20.9 0.00 0.00 0.00 49 1008.9
20260505230223 16 181 6.4 20.9 0.00 0.00 0.00 49 1009.0
20260505230209 17 181 6.4 20.9 0.00 0.00 0.00 49 1009.0
20260505230012 17 181 6.4 20.9 0.00 0.00 0.00 49 1008.9
20260505225913 17 181 6.4 20.9 0.00 0.00 0.00 49 1009.0
20260505225809 17 180 6.4 20.9 0.00 0.00 0.00 49 1009.0
20260505225722 17 180 6.4 20.9 0.00 0.00 0.00 49 1008.8
20260505225708 17 180 6.4 20.9 0.00 0.00 0.00 49 1008.9
20260505225509 17 180 6.4 20.9 0.00 0.00 0.00 50 1008.9
20260505225411 17 180 6.4 20.9 0.00 0.00 0.00 50 1009.0
20260505225309 17 179 4.8 20.9 0.00 0.00 0.00 50 1008.9
20260505225210 17 179 4.8 20.9 0.00 0.00 0.00 50 1008.8
20260505225110 17 179 4.8 20.9 0.00 0.00 0.00 50 1008.9
20260505225105 17 179 4.8 20.9 0.00 0.00 0.00 50 1008.8
20260505225011 17 179 4.8 19.3 0.00 0.00 0.00 50 1008.8
20260505224911 17 180 6.4 19.3 0.00 0.00 0.00 50 1008.8
20260505224811 17 180 6.4 19.3 0.00 0.00 0.00 50 1008.8
20260505224710 17 180 6.4 19.3 0.00 0.00 0.00 50 1008.7
20260505224611 17 180 6.4 19.3 0.00 0.00 0.00 50 1008.8
20260505224604 17 181 6.4 19.3 0.00 0.00 0.00 49 1008.8
20260505224511 17 181 6.4 19.3 0.00 0.00 0.00 49 1008.8
20260505224410 17 181 4.8 19.3 0.00 0.00 0.00 49 1008.7
20260505224309 16 181 6.4 19.3 0.00 0.00 0.00 49 1008.7
20260505224208 16 182 6.4 14.5 0.00 0.00 0.00 48 1009.0
20260505224108 16 181 4.8 24.1 0.00 0.00 0.00 48 1008.7
20260505224103 16 181 6.4 24.1 0.00 0.00 0.00 48 1008.7
20260505224007 16 181 6.4 24.1 0.00 0.00 0.00 50 1008.7
20260505223908 16 181 6.4 24.1 0.00 0.00 0.00 50 1008.7
20260505223807 16 181 6.4 24.1 0.00 0.00 0.00 50 1008.7
20260505223709 16 181 6.4 24.1 0.00 0.00 0.00 50 1008.7
20260505223604 16 181 6.4 24.1 0.00 0.00 0.00 51 1008.7
20260505223508 17 181 6.4 24.1 0.00 0.00 0.00 51 1008.7
20260505223405 17 181 6.4 24.1 0.00 0.00 0.00 52 1008.7
20260505223306 17 181 6.4 24.1 0.00 0.00 0.00 53 1008.5
20260505223206 17 181 6.4 24.1 0.00 0.00 0.00 54 1008.5
20260505223101 17 182 6.4 20.9 0.00 0.00 0.00 54 1008.6
20260505223005 17 183 6.4 20.9 0.00 0.00 0.00 54 1008.6
20260505222906 17 183 6.4 20.9 0.00 0.00 0.00 55 1008.6
20260505222805 17 183 6.4 20.9 0.00 0.00 0.00 57 1008.7
20260505222707 17 182 6.4 20.9 0.00 0.00 0.00 57 1008.7
20260505222603 17 182 6.4 20.9 0.00 0.00 0.00 57 1008.6
20260505222506 17 182 6.4 20.9 0.00 0.00 0.00 57 1008.6
20260505222406 17 182 6.4 20.9 0.00 0.00 0.00 57 1008.7
20260505222306 17 182 6.4 20.9 0.00 0.00 0.00 58 1008.6
20260505222206 18 181 4.8 19.3 0.00 0.00 0.00 59 1008.7
20260505222110 18 181 4.8 19.3 0.00 0.00 0.00 59 1008.6
20260505222105 18 181 3.2 14.5 0.00 0.00 0.00 60 1008.7
20260505222101 18 181 4.8 19.3 0.00 0.00 0.00 59 1008.6
20260505222005 18 181 4.8 19.3 0.00 0.00 0.00 59 1008.6
20260505221905 18 181 4.8 16.1 0.00 0.00 0.00 59 1008.7
20260505221806 18 182 4.8 16.1 0.00 0.00 0.00 60 1008.6
20260505221720 18 182 4.8 14.5 0.00 0.00 0.00 60 1008.7
20260505221706 18 181 3.2 14.5 0.00 0.00 0.00 60 1008.7
20260505221506 18 182 3.2 14.5 0.00 0.00 0.00 60 1008.6
20260505221406 18 182 3.2 14.5 0.00 0.00 0.00 60 1008.6
20260505221305 18 182 3.2 14.5 0.00 0.00 0.00 60 1008.6
20260505221205 18 182 4.8 14.5 0.00 0.00 0.00 60 1008.6
20260505221107 18 182 4.8 14.5 0.00 0.00 0.00 60 1008.5
20260505221101 18 181 4.8 14.5 0.00 0.00 0.00 60 1008.5
20260505221007 18 181 3.2 14.5 0.00 0.00 0.00 60 1008.5
20260505220906 18 181 3.2 14.5 0.00 0.00 0.00 60 1008.5
20260505220806 18 181 3.2 14.5 0.00 0.00 0.00 60 1008.6
20260505220707 18 181 3.2 14.5 0.00 0.00 0.00 60 1008.5
20260505220607 18 182 4.8 14.5 0.00 0.00 0.00 60 1008.3
20260505220558 18 181 4.8 14.5 0.00 0.00 0.00 60 1008.3
20260505220506 18 181 4.8 14.5 0.00 0.00 0.00 60 1008.4
20260505220405 18 181 4.8 14.5 0.00 0.00 0.00 60 1008.4
20260505220306 18 182 4.8 14.5 0.00 0.00 0.00 60 1008.4
20260505220205 18 181 4.8 14.5 0.00 0.00 0.00 60 1008.3
20260505220105 18 181 4.8 14.5 0.00 0.00 0.00 60 1008.3
20260505220059 18 181 4.8 16.1 0.00 0.00 0.00 60 1008.3
20260505220007 18 181 4.8 16.1 0.00 0.00 0.00 60 1008.3
20260505215905 18 181 6.4 16.1 0.00 0.00 0.00 60 1008.3
20260505215804 18 181 4.8 16.1 0.00 0.00 0.00 60 1008.5
20260505215705 18 181 6.4 16.1 0.00 0.00 0.00 60 1008.3
20260505215605 18 181 4.8 16.1 0.00 0.00 0.00 60 1008.2
20260505215558 18 181 4.8 16.1 0.00 0.00 0.00 60 1008.2
20260505215504 18 181 4.8 16.1 0.00 0.00 0.00 60 1008.3
20260505215405 18 181 4.8 16.1 0.00 0.00 0.00 60 1008.3
20260505215305 18 181 4.8 16.1 0.00 0.00 0.00 60 1008.2
20260505215203 18 181 6.4 16.1 0.00 0.00 0.00 60 1008.4
20260505215106 18 181 4.8 16.1 0.00 0.00 0.00 60 1008.3
20260505215102 18 181 6.4 17.7 0.00 0.00 0.00 60 1008.4
20260505215056 18 181 4.8 17.7 0.00 0.00 0.00 60 1008.3
20260505215003 18 181 4.8 17.7 0.00 0.00 0.00 60 1008.3
20260505214904 18 181 4.8 17.7 0.00 0.00 0.00 60 1008.3
20260505214804 18 181 6.4 17.7 0.00 0.00 0.00 60 1008.3
20260505214723 18 181 6.4 14.5 0.00 0.00 0.00 60 1008.4
20260505214716 18 181 6.4 17.7 0.00 0.00 0.00 60 1008.4
20260505214702 18 182 6.4 17.7 0.00 0.00 0.00 60 1008.4
20260505214502 18 181 6.4 17.7 0.00 0.00 0.00 60 1008.5
20260505214403 18 181 6.4 17.7 0.00 0.00 0.00 60 1008.3
20260505214302 18 181 6.4 17.7 0.00 0.00 0.00 60 1008.4
20260505214216 18 181 6.4 17.7 0.00 0.00 0.00 60 1008.4
20260505214202 18 181 6.4 14.5 0.00 0.00 0.00 60 1008.4
20260505214002 18 181 6.4 14.5 0.00 0.00 0.00 60 1008.4
20260505213903 18 181 6.4 14.5 0.00 0.00 0.00 60 1008.5
20260505213803 18 181 6.4 14.5 0.00 0.00 0.00 60 1008.5
20260505213702 18 181 6.4 14.5 0.00 0.00 0.00 60 1008.4
20260505213603 19 181 6.4 14.5 0.00 0.00 0.00 60 1008.5
20260505213555 19 180 6.4 14.5 0.00 0.00 0.00 60 1008.5
20260505213503 19 180 4.8 14.5 0.00 0.00 0.00 60 1008.5
20260505213401 19 181 6.4 22.5 0.00 0.00 0.00 60 1008.3
20260505213303 19 181 4.8 22.5 0.00 0.00 0.00 60 1008.4
20260505213202 19 180 4.8 22.5 0.00 0.00 0.00 60 1008.5
20260505213102 19 180 4.8 22.5 0.00 0.00 0.00 60 1008.4
20260505213053 19 180 4.8 22.5 0.00 0.00 0.00 60 1008.4
20260505213002 19 180 4.8 22.5 0.00 0.00 0.00 60 1008.5
20260505212903 19 180 4.8 22.5 0.00 0.00 0.00 60 1008.4
20260505212801 20 180 4.8 22.5 0.00 0.00 0.00 60 1008.4
20260505212701 20 180 4.8 22.5 0.00 0.00 0.00 60 1008.5
20260505212601 20 180 4.8 22.5 0.00 0.00 0.00 60 1008.3
20260505212554 20 181 4.8 22.5 0.00 0.00 0.00 60 1008.3
20260505212459 20 181 4.8 22.5 0.00 0.00 0.00 60 1008.4
20260505212359 20 181 4.8 22.5 0.00 0.00 0.00 60 1008.3
20260505212259 20 181 4.8 22.5 0.00 0.00 0.00 60 1008.5
20260505212159 20 181 4.8 22.5 0.00 0.00 0.00 60 1008.4
20260505212055 20 181 4.8 24.1 0.00 0.00 0.00 60 1008.4
20260505212000 20 181 4.8 24.1 0.00 0.00 0.00 60 1008.4
20260505211900 20 181 4.8 24.1 0.00 0.00 0.00 59 1008.3
20260505211801 20 182 4.8 24.1 0.00 0.00 0.00 59 1008.2
20260505211700 20 182 4.8 24.1 0.00 0.00 0.00 59 1008.4
20260505211554 20 183 4.8 24.1 0.00 0.00 0.00 59 1008.3
20260505211458 20 183 4.8 24.1 0.00 0.00 0.00 59 1008.3
20260505211359 20 182 4.8 24.1 0.00 0.00 0.00 59 1008.3
20260505211259 20 182 4.8 24.1 0.00 0.00 0.00 58 1008.3
20260505211157 20 181 4.8 24.1 0.00 0.00 0.00 59 1008.4
20260505211053 20 182 4.8 16.1 0.00 0.00 0.00 59 1008.3
20260505210957 20 182 4.8 16.1 0.00 0.00 0.00 59 1008.3
20260505210857 20 182 4.8 16.1 0.00 0.00 0.00 59 1008.1
20260505210757 20 182 4.8 16.1 0.00 0.00 0.00 59 1008.2
20260505210658 20 182 4.8 16.1 0.00 0.00 0.00 58 1008.3
20260505210558 20 181 4.8 16.1 0.00 0.00 0.00 58 1008.2
20260505210554 20 182 4.8 16.1 0.00 0.00 0.00 58 1008.2
20260505210457 20 182 3.2 14.5 0.00 0.00 0.00 58 1008.3
20260505210357 20 181 4.8 14.5 0.00 0.00 0.00 58 1008.3
20260505210259 21 182 3.2 14.5 0.00 0.00 0.00 58 1008.2
20260505210220 20 181 4.8 20.9 0.00 0.00 0.00 60 1008.2
20260505210156 21 181 3.2 14.5 0.00 0.00 0.00 59 1008.3
20260505210052 21 181 3.2 11.3 0.00 0.00 0.00 59 1008.2
20260505205956 21 181 3.2 11.3 0.00 0.00 0.00 59 1008.3
20260505205856 21 181 3.2 11.3 0.00 0.00 0.00 59 1008.3
20260505205829 21 181 3.2 11.3 0.00 0.00 0.00 59 1008.3
20260505205712 21 181 3.2 11.3 0.00 0.00 0.00 59 1008.3
20260505205658 21 181 3.2 12.9 0.00 0.00 0.00 59 1007.9
20260505205457 21 181 3.2 12.9 0.00 0.00 0.00 59 1008.2
20260505205357 20 181 4.8 12.9 0.00 0.00 0.00 60 1008.3
20260505205256 20 181 4.8 20.9 0.00 0.00 0.00 59 1008.1
20260505205211 20 181 4.8 20.9 0.00 0.00 0.00 60 1008.2
20260505205157 20 181 4.8 20.9 0.00 0.00 0.00 60 1008.2
20260505204956 20 181 4.8 20.9 0.00 0.00 0.00 59 1008.2
20260505204857 20 181 4.8 20.9 0.00 0.00 0.00 59 1008.2
20260505204757 20 181 6.4 20.9 0.00 0.00 0.00 59 1008.1
20260505204655 20 181 4.8 20.9 0.00 0.00 0.00 59 1008.2
20260505204557 20 182 6.4 20.9 0.00 0.00 0.00 59 1008.2
20260505204552 20 181 6.4 20.9 0.00 0.00 0.00 59 1008.2
20260505204456 20 182 6.4 20.9 0.00 0.00 0.00 59 1008.3
20260505204356 20 181 4.8 20.9 0.00 0.00 0.00 59 1008.3
20260505204256 20 181 4.8 17.7 0.00 0.00 0.00 59 1008.2
20260505204157 20 181 4.8 17.7 0.00 0.00 0.00 59 1008.2
20260505204052 20 181 4.8 17.7 0.00 0.00 0.00 59 1008.1
20260505203956 20 181 4.8 17.7 0.00 0.00 0.00 59 1008.3
20260505203857 20 181 4.8 17.7 0.00 0.00 0.00 59 1008.2
20260505203756 20 181 4.8 17.7 0.00 0.00 0.00 59 1008.2
20260505203655 20 181 3.2 12.9 0.00 0.00 0.00 59 1008.1
20260505203551 20 181 3.2 12.9 0.00 0.00 0.00 59 1008.2
20260505203455 20 181 3.2 12.9 0.00 0.00 0.00 59 1008.2
20260505203355 21 181 3.2 11.3 0.00 0.00 0.00 59 1008.3
20260505203255 21 181 3.2 11.3 0.00 0.00 0.00 59 1008.1
20260505203155 21 181 3.2 14.5 0.00 0.00 0.00 59 1008.1
20260505203052 21 181 3.2 14.5 0.00 0.00 0.00 59 1008.2
20260505202957 21 181 4.8 14.5 0.00 0.00 0.00 59 1008.2
20260505202856 21 181 4.8 14.5 0.00 0.00 0.00 59 1008.3
20260505202756 21 181 4.8 19.3 0.00 0.00 0.00 59 1008.2
20260505202655 21 181 4.8 19.3 0.00 0.00 0.00 59 1008.4
20260505202553 21 181 4.8 19.3 0.00 0.00 0.00 59 1008.3
20260505202456 21 181 4.8 19.3 0.00 0.00 0.00 59 1008.3
20260505202357 21 181 4.8 19.3 0.00 0.00 0.00 59 1008.3
20260505202256 21 181 4.8 19.3 0.00 0.00 0.00 58 1008.2
20260505202157 21 181 4.8 19.3 0.00 0.00 0.00 59 1008.2
20260505202053 21 181 4.8 19.3 0.00 0.00 0.00 58 1008.3
20260505201957 21 182 4.8 19.3 0.00 0.00 0.00 58 1008.2
20260505201857 21 181 4.8 19.3 0.00 0.00 0.00 58 1008.3
20260505201755 21 181 3.2 17.7 0.00 0.00 0.00 58 1008.3
20260505201655 21 182 3.2 17.7 0.00 0.00 0.00 57 1008.3